Time,TemperatureF,DewpointF,PressureIn,WindDirection,WindDirectionDegrees,WindSpeedMPH,WindSpeedGustMPH,Humidity,HourlyPrecipIn,Conditions,Clouds,dailyrainin,SolarRadiationWatts/m^2,SoftwareType,DateUTC
2013-10-18 00:00:00,46.9,40.3,29.86,SW,233,8.5,8.5,78,0.00,,,0.16,0.00,VWS V14.01,2013-10-18 04:00:00,
2013-10-18 00:01:00,47.0,40.3,29.90,WSW,252,6.8,8.5,78,0.00,,,0.00,0.12,VWS V14.01,2013-10-18 04:01:00,
2013-10-18 00:02:00,46.6,40.2,29.86,WSW,245,5.7,5.7,78,0.00,,,0.00,0.00,VWS V14.01,2013-10-18 04:02:00,
2013-10-18 00:03:00,46.6,40.4,29.85,WSW,244,4.2,5.7,79,0.00,,,0.00,0.00,VWS V14.01,2013-10-18 04:03:00,
2013-10-18 00:06:00,46.8,40.6,29.85,WSW,249,6.3,6.3,79,0.00,,,0.00,0.00,VWS V14.01,2013-10-18 04:06:00,
2013-10-18 00:07:00,46.8,40.7,29.87,WSW,250,5.7,6.4,79,0.00,,,0.00,0.00,VWS V14.01,2013-10-18 04:07:00,
2013-10-18 00:10:00,46.7,40.2,29.86,WSW,258,4.4,8.0,78,0.00,,,0.00,0.00,VWS V14.01,2013-10-18 04:10:00,
2013-10-18 00:12:00,46.7,40.3,29.85,WSW,255,5.7,5.9,78,0.00,,,0.00,0.00,VWS V14.01,2013-10-18 04:12:00,
2013-10-18 00:13:00,46.7,40.5,29.86,WSW,253,6.3,6.3,79,0.00,,,0.00,0.00,VWS V14.01,2013-10-18 04:13:00,
2013-10-18 00:14:00,46.8,40.5,29.86,WSW,255,6.1,6.3,78,0.00,,,0.00,0.00,VWS V14.01,2013-10-18 04:14:00,
2013-10-18 00:15:00,46.8,40.4,29.86,WSW,243,7.3,7.3,78,0.00,,,0.00,0.00,VWS V14.01,2013-10-18 04:15:00,
2013-10-18 00:16:00,46.7,40.2,29.87,WSW,244,6.6,7.3,78,0.00,,,0.00,0.00,VWS V14.01,2013-10-18 04:16:00,
2013-10-18 00:17:00,46.6,40.0,29.86,WSW,238,6.3,6.6,78,0.00,,,0.00,0.00,VWS V14.01,2013-10-18 04:17:00,
2013-10-18 00:18:00,46.5,40.0,29.86,WSW,247,5.1,6.3,78,0.00,,,0.00,0.43,VWS V14.01,2013-10-18 04:18:00,
2013-10-18 00:20:00,46.5,39.9,29.87,WSW,242,5.2,8.5,78,0.00,,,0.00,0.00,VWS V14.01,2013-10-18 04:20:00,
2013-10-18 00:21:00,46.5,38.8,29.86,SW,229,7.3,7.3,74,0.00,,,0.00,0.00,VWS V14.01,2013-10-18 04:21:00,
2013-10-18 00:22:00,46.3,39.6,29.87,WSW,244,4.4,7.1,77,0.00,,,0.00,0.00,VWS V14.01,2013-10-18 04:22:00,
2013-10-18 00:23:00,46.5,38.3,29.86,WSW,250,6.4,6.4,73,0.00,,,0.00,0.00,VWS V14.01,2013-10-18 04:23:00,
2013-10-18 00:24:00,46.2,39.6,29.86,WSW,247,5.6,6.4,77,0.00,,,0.00,0.00,VWS V14.01,2013-10-18 04:24:00,
2013-10-18 00:26:00,46.0,39.5,29.86,WSW,237,3.9,6.1,78,0.00,,,0.00,0.00,VWS V14.01,2013-10-18 04:26:00,
2013-10-18 00:28:00,46.4,40.2,29.86,WSW,241,5.9,5.9,79,0.00,,,0.00,0.43,VWS V14.01,2013-10-18 04:28:00,
2013-10-18 00:29:00,45.4,39.2,29.86,WSW,246,5.2,5.9,79,0.00,,,0.00,0.00,VWS V14.01,2013-10-18 04:29:00,
2013-10-18 00:31:00,45.2,39.4,29.86,SW,235,4.4,4.4,80,0.00,,,0.00,0.00,VWS V14.01,2013-10-18 04:31:00,
2013-10-18 00:32:00,45.1,39.3,29.86,WSW,253,5.7,5.7,80,0.00,,,0.00,0.00,VWS V14.01,2013-10-18 04:32:00,
2013-10-18 00:33:00,44.8,39.1,29.86,WSW,255,3.9,5.7,80,0.00,,,0.00,0.00,VWS V14.01,2013-10-18 04:33:00,
2013-10-18 00:37:00,44.6,39.5,29.87,WSW,250,4.0,4.7,82,0.00,,,0.00,0.00,VWS V14.01,2013-10-18 04:37:00,
2013-10-18 00:38:00,44.6,39.6,29.86,WSW,243,5.9,5.9,82,0.00,,,0.00,0.00,VWS V14.01,2013-10-18 04:38:00,
2013-10-18 00:41:00,44.3,39.7,29.90,WSW,250,4.9,4.9,84,0.00,,,0.00,0.12,VWS V14.01,2013-10-18 04:41:00,
2013-10-18 00:42:00,44.5,40.1,29.87,SW,232,5.2,5.2,85,0.00,,,0.00,0.00,VWS V14.01,2013-10-18 04:42:00,
2013-10-18 00:43:00,44.2,39.9,29.87,WSW,239,5.2,5.2,85,0.00,,,0.00,0.73,VWS V14.01,2013-10-18 04:43:00,
2013-10-18 00:44:00,44.5,38.4,29.87,WSW,247,4.5,5.6,79,0.00,,,0.00,0.00,VWS V14.01,2013-10-18 04:44:00,
2013-10-18 00:48:00,44.4,40.4,29.87,WSW,251,6.8,6.8,86,0.00,,,0.00,0.00,VWS V14.01,2013-10-18 04:48:00,
2013-10-18 00:49:00,44.4,40.4,29.87,WSW,249,5.4,6.6,86,0.00,,,0.00,0.00,VWS V14.01,2013-10-18 04:49:00,
2013-10-18 00:50:00,44.4,39.7,29.87,WSW,249,7.3,7.3,83,0.00,,,0.00,0.00,VWS V14.01,2013-10-18 04:50:00,
2013-10-18 00:51:00,43.7,39.6,29.87,WSW,246,4.9,7.1,86,0.00,,,0.00,0.00,VWS V14.01,2013-10-18 04:51:00,
2013-10-18 00:53:00,43.5,39.7,29.88,WSW,237,4.5,4.7,86,0.00,,,0.00,0.00,VWS V14.01,2013-10-18 04:53:00,
2013-10-18 00:55:00,43.5,40.1,29.87,WSW,256,5.2,5.2,88,0.00,,,0.00,0.00,VWS V14.01,2013-10-18 04:55:00,
2013-10-18 00:57:00,44.1,41.0,29.88,WSW,242,7.5,7.5,89,0.00,,,0.00,0.00,VWS V14.01,2013-10-18 04:57:00,
2013-10-18 00:58:00,43.2,40.0,29.87,WSW,241,3.9,6.3,88,0.00,,,0.00,0.00,VWS V14.01,2013-10-18 04:58:00,
2013-10-18 00:59:00,43.3,40.0,29.87,WSW,237,4.9,4.9,88,0.00,,,0.00,0.00,VWS V14.01,2013-10-18 04:59:00,
2013-10-18 01:02:00,43.2,40.2,29.87,WSW,247,5.4,5.4,89,0.00,,,0.00,0.00,VWS V14.01,2013-10-18 05:02:00,
2013-10-18 01:03:00,43.2,40.3,29.87,WSW,246,5.9,5.9,90,0.00,,,0.00,0.00,VWS V14.01,2013-10-18 05:03:00,
2013-10-18 01:04:00,43.0,40.2,29.87,WSW,237,5.2,5.9,90,0.00,,,0.00,0.00,VWS V14.01,2013-10-18 05:04:00,
2013-10-18 01:05:00,43.3,40.6,29.87,WSW,251,6.8,6.8,90,0.00,,,0.00,0.00,VWS V14.01,2013-10-18 05:05:00,
2013-10-18 01:08:00,42.8,40.3,29.88,WSW,253,4.5,5.4,91,0.00,,,0.00,0.00,VWS V14.01,2013-10-18 05:08:00,
2013-10-18 01:11:00,42.9,40.6,29.88,WSW,247,4.7,6.1,91,0.00,,,0.00,0.43,VWS V14.01,2013-10-18 05:11:00,
2013-10-18 01:12:00,43.0,40.8,29.87,WSW,239,7.5,7.5,92,0.00,,,0.00,0.00,VWS V14.01,2013-10-18 05:12:00,
2013-10-18 01:13:00,42.9,40.6,29.88,WSW,251,4.5,4.5,92,0.00,,,0.00,0.00,VWS V14.01,2013-10-18 05:13:00,
2013-10-18 01:14:00,43.1,40.8,29.88,WSW,247,5.7,6.3,92,0.00,,,0.00,0.00,VWS V14.01,2013-10-18 05:14:00,
2013-10-18 01:17:00,42.4,40.2,29.88,WSW,242,4.4,5.1,92,0.00,,,0.00,0.00,VWS V14.01,2013-10-18 05:17:00,
2013-10-18 01:18:00,42.8,40.5,29.88,WSW,245,4.0,4.4,92,0.00,,,0.00,0.43,VWS V14.01,2013-10-18 05:18:00,
2013-10-18 01:19:00,42.6,40.4,29.88,WSW,241,4.2,4.2,92,0.00,,,0.00,0.00,VWS V14.01,2013-10-18 05:19:00,
2013-10-18 01:23:00,42.2,40.3,29.88,WSW,242,3.5,5.1,93,0.00,,,0.00,0.00,VWS V14.01,2013-10-18 05:23:00,
2013-10-18 01:24:00,42.2,40.3,29.88,West,264,3.2,3.5,93,0.00,,,0.00,0.00,VWS V14.01,2013-10-18 05:24:00,
2013-10-18 01:26:00,42.7,40.9,29.88,WSW,245,5.9,5.9,93,0.00,,,0.00,0.00,VWS V14.01,2013-10-18 05:26:00,
2013-10-18 01:28:00,42.4,40.7,29.92,SW,222,4.7,4.7,94,0.00,,,0.00,0.00,VWS V14.01,2013-10-18 05:28:00,
2013-10-18 01:30:00,42.0,40.3,29.88,SW,236,3.4,3.4,94,0.00,,,0.00,0.00,VWS V14.01,2013-10-18 05:30:00,
2013-10-18 01:31:00,42.3,40.7,29.88,WSW,244,4.7,6.1,94,0.00,,,0.00,0.00,VWS V14.01,2013-10-18 05:31:00,
2013-10-18 01:32:00,41.9,40.3,29.88,West,267,3.7,4.7,94,0.00,,,0.00,0.00,VWS V14.01,2013-10-18 05:32:00,
2013-10-18 01:34:00,41.9,39.0,29.88,WSW,250,3.4,4.9,89,0.00,,,0.00,0.12,VWS V14.01,2013-10-18 05:34:00,
2013-10-18 01:35:00,42.4,40.8,29.89,SW,216,4.2,4.2,94,0.00,,,0.00,0.00,VWS V14.01,2013-10-18 05:35:00,
2013-10-18 01:37:00,41.9,38.1,29.88,SW,236,2.7,5.4,86,0.00,,,0.00,0.43,VWS V14.01,2013-10-18 05:37:00,
2013-10-18 01:38:00,41.7,40.3,29.88,SW,220,3.5,4.9,95,0.00,,,0.00,0.00,VWS V14.01,2013-10-18 05:38:00,
2013-10-18 01:42:00,41.9,40.6,29.89,WSW,253,4.4,4.4,95,0.00,,,0.00,0.12,VWS V14.01,2013-10-18 05:42:00,
2013-10-18 01:44:00,41.8,40.5,29.89,WSW,250,3.9,5.7,95,0.00,,,0.00,0.00,VWS V14.01,2013-10-18 05:44:00,
2013-10-18 01:47:00,41.6,40.4,29.89,WSW,256,4.0,6.9,95,0.00,,,0.00,0.43,VWS V14.01,2013-10-18 05:47:00,
2013-10-18 01:48:00,41.7,40.5,29.90,West,259,4.0,4.0,95,0.00,,,0.00,0.00,VWS V14.01,2013-10-18 05:48:00,
2013-10-18 01:50:00,41.3,40.0,29.88,West,263,4.2,4.2,95,0.00,,,0.00,0.00,VWS V14.01,2013-10-18 05:50:00,
2013-10-18 01:51:00,41.9,40.7,29.88,West,267,3.5,4.2,95,0.00,,,0.00,0.00,VWS V14.01,2013-10-18 05:51:00,
2013-10-18 01:52:00,41.9,40.7,29.88,West,267,3.5,3.5,95,0.00,,,0.00,0.00,VWS V14.01,2013-10-18 05:52:00,
2013-10-18 01:53:00,41.9,40.7,29.89,WSW,255,4.0,4.0,95,0.00,,,0.00,0.00,VWS V14.01,2013-10-18 05:53:00,
2013-10-18 01:54:00,41.7,40.5,29.89,WSW,253,3.4,4.7,96,0.00,,,0.00,0.00,VWS V14.01,2013-10-18 05:54:00,
2013-10-18 01:56:00,41.5,40.3,29.89,WSW,246,3.5,3.5,95,0.00,,,0.00,0.00,VWS V14.01,2013-10-18 05:56:00,
2013-10-18 01:57:00,41.3,40.1,29.89,WSW,254,3.9,3.9,96,0.00,,,0.00,0.00,VWS V14.01,2013-10-18 05:57:00,
2013-10-18 01:59:00,41.6,40.5,29.89,WSW,254,3.5,4.2,96,0.00,,,0.00,0.00,VWS V14.01,2013-10-18 05:59:00,
2013-10-18 02:00:00,41.6,40.5,29.90,West,264,4.0,4.0,96,0.00,,,0.00,0.00,VWS V14.01,2013-10-18 06:00:00,
2013-10-18 02:01:00,41.3,40.3,29.89,West,267,3.4,4.0,96,0.00,,,0.00,0.00,VWS V14.01,2013-10-18 06:01:00,
2013-10-18 02:02:00,41.2,40.1,29.89,West,262,2.3,3.7,96,0.00,,,0.00,0.00,VWS V14.01,2013-10-18 06:02:00,
2013-10-18 02:05:00,41.9,40.9,29.88,WSW,258,5.6,5.6,96,0.00,,,0.00,0.43,VWS V14.01,2013-10-18 06:05:00,
2013-10-18 02:06:00,41.1,40.1,29.89,SW,224,2.3,4.2,96,0.00,,,0.00,0.00,VWS V14.01,2013-10-18 06:06:00,
2013-10-18 02:07:00,41.9,40.9,29.88,West,269,5.1,5.1,96,0.00,,,0.00,0.00,VWS V14.01,2013-10-18 06:07:00,
2013-10-18 02:08:00,41.0,40.0,29.88,WSW,253,3.0,5.1,96,0.00,,,0.00,0.00,VWS V14.01,2013-10-18 06:08:00,
2013-10-18 02:10:00,41.2,40.2,29.88,WSW,257,3.0,3.4,96,0.00,,,0.00,0.00,VWS V14.01,2013-10-18 06:10:00,
2013-10-18 02:11:00,41.1,40.1,29.89,WSW,253,2.3,2.3,96,0.00,,,0.00,0.00,VWS V14.01,2013-10-18 06:11:00,
2013-10-18 02:13:00,41.1,40.1,29.89,WNW,283,3.0,3.0,96,0.00,,,0.00,0.43,VWS V14.01,2013-10-18 06:13:00,
2013-10-18 02:15:00,41.0,40.0,29.89,WSW,257,2.2,3.0,96,0.00,,,0.00,0.00,VWS V14.01,2013-10-18 06:15:00,
2013-10-18 02:16:00,41.7,40.7,29.89,West,259,2.5,2.5,96,0.00,,,0.00,0.00,VWS V14.01,2013-10-18 06:16:00,
2013-10-18 02:18:00,41.0,40.0,29.89,West,261,2.0,2.0,96,0.00,,,0.00,0.00,VWS V14.01,2013-10-18 06:18:00,
2013-10-18 02:19:00,41.3,40.4,29.89,WSW,247,2.5,2.5,97,0.00,,,0.00,0.12,VWS V14.01,2013-10-18 06:19:00,
2013-10-18 02:20:00,41.2,40.3,29.89,WSW,251,2.5,2.5,97,0.00,,,0.00,0.00,VWS V14.01,2013-10-18 06:20:00,
2013-10-18 02:21:00,41.0,40.1,29.89,West,271,4.0,4.0,97,0.00,,,0.00,0.00,VWS V14.01,2013-10-18 06:21:00,
2013-10-18 02:22:00,40.7,39.8,29.88,WSW,257,2.7,4.0,97,0.00,,,0.00,0.12,VWS V14.01,2013-10-18 06:22:00,
2013-10-18 02:23:00,41.4,40.5,29.88,WSW,254,3.5,3.5,97,0.00,,,0.00,0.00,VWS V14.01,2013-10-18 06:23:00,
2013-10-18 02:25:00,40.5,39.7,29.89,WSW,257,2.0,3.7,97,0.00,,,0.00,0.00,VWS V14.01,2013-10-18 06:25:00,
2013-10-18 02:26:00,40.9,40.0,29.89,WSW,246,1.0,1.0,97,0.00,,,0.00,0.00,VWS V14.01,2013-10-18 06:26:00,
2013-10-18 02:27:00,40.9,40.0,29.89,WSW,246,1.0,1.0,97,0.00,,,0.00,0.00,VWS V14.01,2013-10-18 06:27:00,
2013-10-18 02:28:00,41.3,40.6,29.88,WSW,258,2.8,2.8,97,0.00,,,0.00,0.00,VWS V14.01,2013-10-18 06:28:00,
2013-10-18 02:30:00,41.0,40.3,29.89,WSW,248,3.9,3.9,97,0.00,,,0.00,0.00,VWS V14.01,2013-10-18 06:30:00,
2013-10-18 02:32:00,41.1,40.4,29.89,WSW,247,2.8,2.8,97,0.00,,,0.00,0.37,VWS V14.01,2013-10-18 06:32:00,
2013-10-18 02:33:00,40.8,40.1,29.89,WSW,244,1.8,2.8,97,0.00,,,0.00,0.00,VWS V14.01,2013-10-18 06:33:00,
2013-10-18 02:37:00,40.6,39.9,29.89,West,266,2.2,3.0,97,0.00,,,0.00,0.12,VWS V14.01,2013-10-18 06:37:00,
2013-10-18 02:38:00,40.5,39.8,29.89,WSW,252,2.5,2.8,98,0.00,,,0.00,0.00,VWS V14.01,2013-10-18 06:38:00,
2013-10-18 02:39:00,40.4,39.8,29.89,WSW,247,2.5,4.0,98,0.00,,,0.00,0.00,VWS V14.01,2013-10-18 06:39:00,
2013-10-18 02:40:00,40.5,40.0,29.90,WSW,257,3.0,3.0,98,0.00,,,0.00,0.00,VWS V14.01,2013-10-18 06:40:00,
2013-10-18 02:42:00,40.7,38.3,29.89,WSW,247,2.3,2.5,91,0.00,,,0.00,0.43,VWS V14.01,2013-10-18 06:42:00,
2013-10-18 02:43:00,40.7,38.3,29.89,WSW,247,2.3,2.5,91,0.00,,,0.00,0.43,VWS V14.01,2013-10-18 06:43:00,
2013-10-18 02:44:00,40.4,39.9,29.89,West,262,3.4,4.7,98,0.00,,,0.00,0.43,VWS V14.01,2013-10-18 06:44:00,
2013-10-18 02:45:00,40.4,39.9,29.89,WSW,251,3.4,3.4,98,0.00,,,0.00,0.12,VWS V14.01,2013-10-18 06:45:00,
2013-10-18 02:46:00,40.4,40.0,29.89,WSW,247,2.7,3.4,98,0.00,,,0.00,0.00,VWS V14.01,2013-10-18 06:46:00,
2013-10-18 02:48:00,40.5,40.0,29.89,West,260,3.2,3.2,98,0.00,,,0.00,0.00,VWS V14.01,2013-10-18 06:48:00,
2013-10-18 02:49:00,40.3,39.9,29.88,West,262,1.8,2.8,98,0.00,,,0.00,0.00,VWS V14.01,2013-10-18 06:49:00,
2013-10-18 02:50:00,40.5,40.0,29.89,WSW,251,2.5,2.5,98,0.00,,,0.00,0.00,VWS V14.01,2013-10-18 06:50:00,
2013-10-18 02:51:00,40.2,39.8,29.90,WSW,252,3.4,3.4,98,0.00,,,0.00,0.00,VWS V14.01,2013-10-18 06:51:00,
2013-10-18 02:53:00,40.0,39.5,29.90,WSW,254,2.2,2.5,98,0.00,,,0.00,0.00,VWS V14.01,2013-10-18 06:53:00,
2013-10-18 02:55:00,40.3,38.2,29.89,WSW,248,2.8,3.4,92,0.00,,,0.00,0.43,VWS V14.01,2013-10-18 06:55:00,
2013-10-18 02:57:00,39.9,39.5,29.89,West,263,2.8,4.5,99,0.00,,,0.00,0.73,VWS V14.01,2013-10-18 06:57:00,
2013-10-18 02:58:00,40.4,40.1,29.89,WSW,245,4.0,4.0,99,0.00,,,0.00,0.00,VWS V14.01,2013-10-18 06:58:00,
2013-10-18 02:59:00,40.3,40.0,29.89,WSW,250,2.5,3.5,99,0.00,,,0.00,0.00,VWS V14.01,2013-10-18 06:59:00,
2013-10-18 03:00:00,39.8,39.5,29.89,WSW,255,2.3,2.8,99,0.00,,,0.00,0.00,VWS V14.01,2013-10-18 07:00:00,
2013-10-18 03:02:00,40.2,39.8,29.90,WSW,253,3.5,3.5,99,0.00,,,0.00,0.00,VWS V14.01,2013-10-18 07:02:00,
2013-10-18 03:03:00,40.3,40.0,29.94,West,261,2.8,4.0,99,0.00,,,0.00,0.00,VWS V14.01,2013-10-18 07:03:00,
2013-10-18 03:04:00,40.5,40.2,29.89,WSW,255,3.4,4.7,99,0.00,,,0.00,0.00,VWS V14.01,2013-10-18 07:04:00,
2013-10-18 03:05:00,40.4,40.1,29.88,WSW,252,3.7,3.7,99,0.00,,,0.00,0.00,VWS V14.01,2013-10-18 07:05:00,
2013-10-18 03:07:00,40.2,40.0,29.89,WSW,253,3.2,3.2,99,0.00,,,0.00,0.00,VWS V14.01,2013-10-18 07:07:00,
2013-10-18 03:09:00,39.8,39.5,29.89,WSW,252,1.0,1.0,99,0.00,,,0.00,0.12,VWS V14.01,2013-10-18 07:09:00,
2013-10-18 03:10:00,40.3,40.1,29.90,WSW,247,2.0,2.0,99,0.00,,,0.00,0.00,VWS V14.01,2013-10-18 07:10:00,
2013-10-18 03:12:00,40.5,40.2,29.90,WSW,254,2.8,3.7,99,0.00,,,0.00,0.00,VWS V14.01,2013-10-18 07:12:00,
2013-10-18 03:13:00,40.1,39.9,29.89,West,269,3.2,3.2,99,0.00,,,0.00,0.00,VWS V14.01,2013-10-18 07:13:00,
2013-10-18 03:15:00,40.7,40.4,29.90,WSW,257,3.0,3.0,99,0.00,,,0.00,0.00,VWS V14.01,2013-10-18 07:15:00,
2013-10-18 03:16:00,40.2,40.0,29.89,WSW,252,3.0,3.9,99,0.00,,,0.00,0.00,VWS V14.01,2013-10-18 07:16:00,
2013-10-18 03:18:00,40.4,40.2,29.93,WSW,254,3.5,4.4,99,0.00,,,0.00,0.00,VWS V14.01,2013-10-18 07:18:00,
2013-10-18 03:20:00,40.0,39.8,29.90,WSW,258,3.7,3.7,99,0.00,,,0.00,0.00,VWS V14.01,2013-10-18 07:20:00,
2013-10-18 03:21:00,39.7,39.5,29.90,West,271,3.9,3.9,99,0.00,,,0.00,0.00,VWS V14.01,2013-10-18 07:21:00,
2013-10-18 03:23:00,39.8,39.5,29.90,WSW,252,3.0,3.0,99,0.00,,,0.00,0.00,VWS V14.01,2013-10-18 07:23:00,
2013-10-18 03:24:00,40.0,39.8,29.89,WSW,249,2.3,3.0,99,0.00,,,0.00,0.12,VWS V14.01,2013-10-18 07:24:00,
2013-10-18 03:25:00,40.3,40.1,29.89,WSW,251,3.5,3.5,99,0.00,,,0.00,0.73,VWS V14.01,2013-10-18 07:25:00,
2013-10-18 03:27:00,40.2,40.0,29.89,WSW,246,2.7,3.2,99,0.00,,,0.00,0.00,VWS V14.01,2013-10-18 07:27:00,
2013-10-18 03:28:00,39.5,39.3,29.90,WSW,251,1.6,2.7,99,0.00,,,0.00,0.00,VWS V14.01,2013-10-18 07:28:00,
2013-10-18 03:29:00,40.0,39.7,29.90,WSW,248,2.3,2.3,99,0.00,,,0.00,0.00,VWS V14.01,2013-10-18 07:29:00,
2013-10-18 03:31:00,40.2,40.0,29.89,WSW,251,2.5,5.1,99,0.00,,,0.00,0.00,VWS V14.01,2013-10-18 07:31:00,
2013-10-18 03:32:00,39.8,39.5,29.89,WSW,257,2.3,3.4,99,0.00,,,0.00,0.00,VWS V14.01,2013-10-18 07:32:00,
2013-10-18 03:34:00,40.2,40.0,29.88,WSW,253,3.7,4.2,99,0.00,,,0.00,0.73,VWS V14.01,2013-10-18 07:34:00,
2013-10-18 03:36:00,40.0,39.8,29.88,West,266,3.0,3.0,99,0.00,,,0.00,0.00,VWS V14.01,2013-10-18 07:36:00,
2013-10-18 03:37:00,39.7,39.5,29.92,WSW,249,2.2,2.7,99,0.00,,,0.00,0.00,VWS V14.01,2013-10-18 07:37:00,
2013-10-18 03:38:00,39.7,39.4,29.90,WSW,242,2.5,2.7,99,0.00,,,0.00,0.43,VWS V14.01,2013-10-18 07:38:00,
2013-10-18 03:40:00,39.6,39.4,29.89,WSW,239,3.4,4.0,99,0.00,,,0.00,0.00,VWS V14.01,2013-10-18 07:40:00,
2013-10-18 03:41:00,40.0,39.8,29.90,WSW,248,2.5,2.8,99,0.00,,,0.00,0.43,VWS V14.01,2013-10-18 07:41:00,
2013-10-18 03:42:00,39.6,39.4,29.89,WSW,242,2.8,3.2,99,0.00,,,0.00,0.43,VWS V14.01,2013-10-18 07:42:00,
2013-10-18 03:43:00,39.5,39.3,29.89,WSW,245,2.3,2.8,99,0.00,,,0.00,0.00,VWS V14.01,2013-10-18 07:43:00,
2013-10-18 03:44:00,39.5,39.3,29.90,SW,236,2.3,2.3,99,0.00,,,0.00,0.00,VWS V14.01,2013-10-18 07:44:00,
2013-10-18 03:45:00,39.2,39.0,29.90,WSW,242,1.5,2.3,99,0.00,,,0.00,0.73,VWS V14.01,2013-10-18 07:45:00,
2013-10-18 03:48:00,39.8,39.6,29.89,WSW,237,1.5,2.0,100,0.00,,,0.00,0.00,VWS V14.01,2013-10-18 07:48:00,
2013-10-18 03:49:00,39.6,39.5,29.89,WSW,246,0.0,1.5,100,0.00,,,0.00,0.00,VWS V14.01,2013-10-18 07:49:00,
2013-10-18 03:51:00,39.7,39.6,29.89,WSW,248,0.0,0.0,100,0.00,,,0.00,0.00,VWS V14.01,2013-10-18 07:51:00,
2013-10-18 03:52:00,39.9,39.8,29.88,WSW,254,0.0,0.0,100,0.00,,,0.00,0.00,VWS V14.01,2013-10-18 07:52:00,
2013-10-18 03:53:00,40.0,40.0,29.88,WSW,247,0.0,0.0,100,0.00,,,0.00,0.00,VWS V14.01,2013-10-18 07:53:00,
2013-10-18 03:56:00,40.0,40.0,29.89,WSW,245,0.0,0.0,100,0.00,,,0.00,0.00,VWS V14.01,2013-10-18 07:56:00,
2013-10-18 03:58:00,40.1,40.1,29.89,WSW,250,0.0,0.0,100,0.00,,,0.00,0.00,VWS V14.01,2013-10-18 07:58:00,
2013-10-18 03:59:00,40.1,40.1,29.89,WSW,250,0.0,0.0,100,0.00,,,0.00,0.00,VWS V14.01,2013-10-18 07:59:00,
2013-10-18 04:01:00,39.2,39.2,29.89,WSW,250,0.0,0.0,100,0.00,,,0.00,0.00,VWS V14.01,2013-10-18 08:01:00,
2013-10-18 04:02:00,39.2,39.2,29.89,WSW,250,0.0,0.0,100,0.00,,,0.00,0.00,VWS V14.01,2013-10-18 08:02:00,
2013-10-18 04:04:00,39.5,39.5,29.89,WSW,239,0.0,0.0,100,0.00,,,0.00,0.00,VWS V14.01,2013-10-18 08:04:00,
2013-10-18 04:06:00,39.3,39.3,29.90,SW,234,0.0,1.1,100,0.00,,,0.00,0.00,VWS V14.01,2013-10-18 08:06:00,
2013-10-18 04:07:00,39.8,39.8,29.90,WSW,246,0.0,1.6,100,0.00,,,0.00,0.00,VWS V14.01,2013-10-18 08:07:00,
2013-10-18 04:08:00,39.4,39.4,29.90,WSW,243,0.0,1.6,100,0.00,,,0.00,0.00,VWS V14.01,2013-10-18 08:08:00,
2013-10-18 04:10:00,39.7,39.7,29.89,WSW,254,0.0,1.6,100,0.00,,,0.00,0.00,VWS V14.01,2013-10-18 08:10:00,
2013-10-18 04:11:00,39.7,39.7,29.89,WSW,247,2.3,2.3,100,0.00,,,0.00,0.00,VWS V14.01,2013-10-18 08:11:00,
2013-10-18 04:15:00,39.3,39.3,29.88,WSW,238,0.0,2.3,100,0.00,,,0.00,0.00,VWS V14.01,2013-10-18 08:15:00,
2013-10-18 04:16:00,39.2,39.2,29.89,WSW,237,0.0,2.3,100,0.00,,,0.00,0.00,VWS V14.01,2013-10-18 08:16:00,
2013-10-18 04:17:00,39.0,39.0,29.89,WSW,237,0.0,2.3,100,0.00,,,0.00,0.43,VWS V14.01,2013-10-18 08:17:00,
2013-10-18 04:18:00,38.7,38.7,29.89,WSW,237,0.0,2.3,100,0.00,,,0.00,0.00,VWS V14.01,2013-10-18 08:18:00,
2013-10-18 04:22:00,38.8,38.8,29.90,SW,220,1.1,2.3,100,0.00,,,0.00,0.00,VWS V14.01,2013-10-18 08:22:00,
2013-10-18 04:23:00,38.8,38.8,29.89,SW,227,1.0,2.3,100,0.00,,,0.00,0.00,VWS V14.01,2013-10-18 08:23:00,
2013-10-18 04:24:00,38.5,38.5,29.90,SW,231,0.0,2.3,100,0.00,,,0.00,0.00,VWS V14.01,2013-10-18 08:24:00,
2013-10-18 04:27:00,38.8,38.8,29.90,SW,231,0.0,2.3,100,0.00,,,0.00,0.00,VWS V14.01,2013-10-18 08:27:00,
2013-10-18 04:28:00,38.8,38.8,29.89,SW,229,0.0,2.3,100,0.00,,,0.00,0.73,VWS V14.01,2013-10-18 08:28:00,
2013-10-18 04:29:00,38.7,38.7,29.89,WSW,240,0.0,2.3,100,0.00,,,0.00,0.00,VWS V14.01,2013-10-18 08:29:00,
2013-10-18 04:30:00,39.2,39.2,29.88,WSW,239,0.0,2.3,100,0.00,,,0.00,0.00,VWS V14.01,2013-10-18 08:30:00,
2013-10-18 04:31:00,39.5,39.5,29.88,WSW,258,0.0,2.3,100,0.00,,,0.00,0.73,VWS V14.01,2013-10-18 08:31:00,
2013-10-18 04:33:00,38.8,38.8,29.89,WSW,253,0.0,2.3,100,0.00,,,0.00,0.00,VWS V14.01,2013-10-18 08:33:00,
2013-10-18 04:34:00,38.5,38.5,29.89,WSW,250,0.0,2.3,100,0.00,,,0.00,0.00,VWS V14.01,2013-10-18 08:34:00,
2013-10-18 04:36:00,38.6,38.6,29.90,WSW,250,0.0,2.3,100,0.00,,,0.00,0.00,VWS V14.01,2013-10-18 08:36:00,
2013-10-18 04:37:00,38.4,38.4,29.90,SW,234,0.0,2.3,100,0.00,,,0.00,0.00,VWS V14.01,2013-10-18 08:37:00,
2013-10-18 04:39:00,38.6,38.6,29.90,SW,234,0.0,2.3,100,0.00,,,0.00,0.00,VWS V14.01,2013-10-18 08:39:00,
2013-10-18 04:41:00,38.0,38.0,29.89,SW,230,0.0,2.3,100,0.00,,,0.00,0.06,VWS V14.01,2013-10-18 08:41:00,
2013-10-18 04:42:00,38.7,38.7,29.89,WSW,240,0.0,2.3,100,0.00,,,0.00,0.43,VWS V14.01,2013-10-18 08:42:00,
2013-10-18 04:43:00,38.5,38.5,29.89,SW,228,0.0,2.3,100,0.00,,,0.00,0.00,VWS V14.01,2013-10-18 08:43:00,
2013-10-18 04:44:00,38.5,38.5,29.88,SW,236,0.0,2.3,100,0.00,,,0.00,0.00,VWS V14.01,2013-10-18 08:44:00,
2013-10-18 04:45:00,38.4,38.4,29.89,SW,236,0.0,2.3,100,0.00,,,0.00,0.00,VWS V14.01,2013-10-18 08:45:00,
2013-10-18 04:48:00,38.4,38.4,29.89,SW,234,0.0,2.3,100,0.00,,,0.00,0.00,VWS V14.01,2013-10-18 08:48:00,
2013-10-18 04:49:00,38.5,38.5,29.89,SW,228,0.0,2.3,100,0.00,,,0.00,0.00,VWS V14.01,2013-10-18 08:49:00,
2013-10-18 04:50:00,38.4,38.4,29.89,SW,235,0.0,2.3,100,0.00,,,0.00,0.73,VWS V14.01,2013-10-18 08:50:00,
2013-10-18 04:51:00,38.5,38.5,29.90,SW,235,0.0,2.3,100,0.00,,,0.00,0.00,VWS V14.01,2013-10-18 08:51:00,
2013-10-18 04:54:00,37.7,37.7,29.90,SW,235,0.0,2.3,100,0.00,,,0.00,0.00,VWS V14.01,2013-10-18 08:54:00,
2013-10-18 04:55:00,37.5,37.5,29.90,SW,235,0.0,2.3,100,0.00,,,0.00,0.06,VWS V14.01,2013-10-18 08:55:00,
2013-10-18 04:56:00,37.8,37.8,29.89,SW,235,0.0,2.3,100,0.00,,,0.00,0.00,VWS V14.01,2013-10-18 08:56:00,
2013-10-18 04:57:00,37.5,37.5,29.89,SW,235,0.0,2.3,100,0.00,,,0.00,0.00,VWS V14.01,2013-10-18 08:57:00,
2013-10-18 05:00:00,37.7,37.7,29.90,SW,215,0.0,2.3,100,0.00,,,0.00,0.00,VWS V14.01,2013-10-18 09:00:00,
2013-10-18 05:01:00,37.1,37.1,29.89,SW,216,0.0,2.3,100,0.00,,,0.00,0.00,VWS V14.01,2013-10-18 09:01:00,
2013-10-18 05:02:00,37.5,37.5,29.89,SW,218,0.0,2.3,100,0.00,,,0.00,0.00,VWS V14.01,2013-10-18 09:02:00,
2013-10-18 05:06:00,37.2,37.2,29.89,SW,221,0.0,0.0,100,0.00,,,0.00,0.00,VWS V14.01,2013-10-18 09:06:00,
2013-10-18 05:07:00,37.7,37.7,29.89,SW,221,0.0,0.0,100,0.00,,,0.00,0.00,VWS V14.01,2013-10-18 09:07:00,
2013-10-18 05:10:00,37.5,37.5,29.90,SW,221,0.0,0.0,100,0.00,,,0.00,0.00,VWS V14.01,2013-10-18 09:10:00,
2013-10-18 05:13:00,37.6,37.6,29.89,SW,233,0.0,0.0,100,0.00,,,0.00,0.00,VWS V14.01,2013-10-18 09:13:00,
2013-10-18 05:14:00,37.7,37.7,29.93,SW,233,0.0,0.0,100,0.00,,,0.00,0.00,VWS V14.01,2013-10-18 09:14:00,
2013-10-18 05:15:00,38.0,38.0,29.90,SW,233,0.0,0.0,100,0.00,,,0.00,0.00,VWS V14.01,2013-10-18 09:15:00,
2013-10-18 05:19:00,37.8,37.8,29.90,WSW,237,0.0,0.0,100,0.00,,,0.00,0.00,VWS V14.01,2013-10-18 09:19:00,
2013-10-18 05:20:00,37.8,37.8,29.90,WSW,237,0.0,0.0,100,0.00,,,0.00,0.00,VWS V14.01,2013-10-18 09:20:00,
2013-10-18 05:21:00,37.7,37.7,29.90,SW,227,0.0,0.0,100,0.00,,,0.00,0.00,VWS V14.01,2013-10-18 09:21:00,
2013-10-18 05:23:00,37.7,37.7,29.89,SW,229,0.0,0.0,100,0.00,,,0.00,0.00,VWS V14.01,2013-10-18 09:23:00,
2013-10-18 05:24:00,37.8,37.8,29.89,WSW,242,0.0,0.0,100,0.00,,,0.00,0.00,VWS V14.01,2013-10-18 09:24:00,
2013-10-18 05:25:00,37.8,37.8,29.89,WSW,242,0.0,0.0,100,0.00,,,0.00,0.00,VWS V14.01,2013-10-18 09:25:00,
2013-10-18 05:27:00,37.9,37.9,29.90,WSW,242,0.0,0.0,100,0.00,,,0.00,0.00,VWS V14.01,2013-10-18 09:27:00,
2013-10-18 05:28:00,38.0,38.0,29.90,WSW,242,0.0,0.0,100,0.00,,,0.00,0.43,VWS V14.01,2013-10-18 09:28:00,
2013-10-18 05:29:00,37.9,37.9,29.90,WSW,242,0.0,0.0,100,0.00,,,0.00,0.00,VWS V14.01,2013-10-18 09:29:00,
2013-10-18 05:31:00,37.8,37.8,29.89,WSW,242,0.0,0.0,100,0.00,,,0.00,0.00,VWS V14.01,2013-10-18 09:31:00,
2013-10-18 05:33:00,37.7,37.7,29.89,WSW,238,0.0,0.0,100,0.00,,,0.00,0.00,VWS V14.01,2013-10-18 09:33:00,
2013-10-18 05:34:00,37.5,37.5,29.89,SW,229,0.0,0.0,100,0.00,,,0.00,0.00,VWS V14.01,2013-10-18 09:34:00,
2013-10-18 05:35:00,37.3,37.3,29.89,SW,229,0.0,0.0,100,0.00,,,0.00,0.00,VWS V14.01,2013-10-18 09:35:00,
2013-10-18 05:36:00,36.9,37.0,29.89,SW,229,0.0,0.0,100,0.00,,,0.00,0.43,VWS V14.01,2013-10-18 09:36:00,
2013-10-18 05:37:00,36.9,37.0,29.89,SW,229,0.0,0.0,100,0.00,,,0.00,0.43,VWS V14.01,2013-10-18 09:37:00,
2013-10-18 05:39:00,36.8,36.8,29.89,SW,229,0.0,0.0,100,0.00,,,0.00,0.00,VWS V14.01,2013-10-18 09:39:00,
2013-10-18 05:41:00,37.1,37.1,29.89,SW,229,0.0,0.0,100,0.00,,,0.00,0.00,VWS V14.01,2013-10-18 09:41:00,
2013-10-18 05:42:00,37.1,37.1,29.89,SW,229,0.0,0.0,100,0.00,,,0.00,0.12,VWS V14.01,2013-10-18 09:42:00,
2013-10-18 05:44:00,37.2,37.2,29.89,SW,219,0.0,0.0,100,0.00,,,0.00,0.00,VWS V14.01,2013-10-18 09:44:00,
2013-10-18 05:45:00,37.8,37.8,29.89,SSW,202,0.0,0.0,100,0.00,,,0.00,0.43,VWS V14.01,2013-10-18 09:45:00,
2013-10-18 05:46:00,37.1,37.1,29.89,SW,216,0.0,0.0,100,0.00,,,0.00,0.12,VWS V14.01,2013-10-18 09:46:00,
2013-10-18 05:48:00,37.3,37.3,29.89,SW,216,0.0,0.0,100,0.00,,,0.00,0.00,VWS V14.01,2013-10-18 09:48:00,
2013-10-18 05:50:00,37.4,37.4,29.90,SW,223,1.6,1.6,100,0.00,,,0.00,0.00,VWS V14.01,2013-10-18 09:50:00,
2013-10-18 05:51:00,37.8,37.8,29.89,SW,221,0.0,0.0,100,0.00,,,0.00,0.06,VWS V14.01,2013-10-18 09:51:00,
2013-10-18 05:52:00,37.4,37.4,29.89,SW,228,0.0,0.0,100,0.00,,,0.00,0.00,VWS V14.01,2013-10-18 09:52:00,
2013-10-18 05:54:00,37.0,37.0,29.89,SW,223,0.0,0.0,100,0.00,,,0.00,0.00,VWS V14.01,2013-10-18 09:54:00,
2013-10-18 05:55:00,37.2,37.2,29.89,SW,223,0.0,0.0,100,0.00,,,0.00,0.00,VWS V14.01,2013-10-18 09:55:00,
2013-10-18 05:56:00,37.4,37.4,29.89,SW,225,0.0,0.0,100,0.00,,,0.00,0.00,VWS V14.01,2013-10-18 09:56:00,
2013-10-18 05:57:00,37.5,37.5,29.89,SW,225,0.0,0.0,100,0.00,,,0.00,0.00,VWS V14.01,2013-10-18 09:57:00,
2013-10-18 06:00:00,37.2,37.2,29.90,SW,228,0.0,1.8,100,0.00,,,0.00,0.00,VWS V14.01,2013-10-18 10:00:00,
2013-10-18 06:01:00,36.8,36.8,29.89,SW,229,0.0,0.0,100,0.00,,,0.00,0.00,VWS V14.01,2013-10-18 10:01:00,
2013-10-18 06:02:00,37.2,37.2,29.89,SW,233,0.0,0.0,100,0.00,,,0.00,0.00,VWS V14.01,2013-10-18 10:02:00,
2013-10-18 06:05:00,36.7,36.7,29.90,SW,233,0.0,0.0,100,0.00,,,0.00,0.00,VWS V14.01,2013-10-18 10:05:00,
2013-10-18 06:06:00,36.9,37.0,29.90,SW,230,0.0,0.0,100,0.00,,,0.00,0.00,VWS V14.01,2013-10-18 10:06:00,
2013-10-18 06:07:00,37.1,37.1,29.90,SW,224,0.0,0.0,100,0.00,,,0.00,0.43,VWS V14.01,2013-10-18 10:07:00,
2013-10-18 06:08:00,37.2,37.2,29.90,SW,228,0.0,0.0,100,0.00,,,0.00,0.00,VWS V14.01,2013-10-18 10:08:00,
2013-10-18 06:09:00,37.3,37.3,29.90,SW,229,1.1,1.1,100,0.00,,,0.00,0.00,VWS V14.01,2013-10-18 10:09:00,
2013-10-18 06:11:00,37.2,37.2,29.89,SW,229,0.0,0.0,100,0.00,,,0.00,0.00,VWS V14.01,2013-10-18 10:11:00,
2013-10-18 06:12:00,37.2,37.2,29.89,SW,229,0.0,0.0,100,0.00,,,0.00,0.00,VWS V14.01,2013-10-18 10:12:00,
2013-10-18 06:13:00,37.1,37.1,29.89,SW,229,0.0,0.0,100,0.00,,,0.00,0.00,VWS V14.01,2013-10-18 10:13:00,
2013-10-18 06:14:00,36.8,36.8,29.90,SW,229,0.0,0.0,100,0.00,,,0.00,0.00,VWS V14.01,2013-10-18 10:14:00,
2013-10-18 06:15:00,37.0,37.0,29.90,SW,220,0.0,0.0,100,0.00,,,0.00,0.00,VWS V14.01,2013-10-18 10:15:00,
2013-10-18 06:16:00,37.1,37.1,29.90,SW,222,0.0,0.0,100,0.00,,,0.00,0.00,VWS V14.01,2013-10-18 10:16:00,
2013-10-18 06:18:00,36.9,36.9,29.90,SW,228,0.0,0.0,100,0.00,,,0.00,0.00,VWS V14.01,2013-10-18 10:18:00,
2013-10-18 06:20:00,36.6,36.6,29.90,SW,226,0.0,0.0,100,0.00,,,0.00,0.00,VWS V14.01,2013-10-18 10:20:00,
2013-10-18 06:21:00,36.5,36.5,29.90,SW,226,0.0,0.0,100,0.00,,,0.00,0.00,VWS V14.01,2013-10-18 10:21:00,
2013-10-18 06:25:00,36.7,36.7,29.90,WSW,244,0.0,0.0,100,0.00,,,0.00,0.00,VWS V14.01,2013-10-18 10:25:00,
2013-10-18 06:26:00,37.0,37.0,29.90,WSW,244,0.0,0.0,100,0.00,,,0.00,0.00,VWS V14.01,2013-10-18 10:26:00,
2013-10-18 06:27:00,37.0,37.0,29.90,WSW,242,0.0,0.0,100,0.00,,,0.00,0.43,VWS V14.01,2013-10-18 10:27:00,
2013-10-18 06:30:00,37.0,37.0,29.89,WSW,241,0.0,0.0,100,0.00,,,0.00,0.00,VWS V14.01,2013-10-18 10:30:00,
2013-10-18 06:31:00,37.1,37.1,29.89,WSW,239,0.0,0.0,100,0.00,,,0.00,0.00,VWS V14.01,2013-10-18 10:31:00,
2013-10-18 06:32:00,37.4,37.4,29.89,SW,227,0.0,0.0,100,0.00,,,0.00,0.00,VWS V14.01,2013-10-18 10:32:00,
2013-10-18 06:36:00,37.2,37.2,29.89,SW,233,0.0,2.5,100,0.00,,,0.00,0.00,VWS V14.01,2013-10-18 10:36:00,
2013-10-18 06:37:00,37.2,37.2,29.90,WSW,237,0.0,0.0,100,0.00,,,0.00,0.00,VWS V14.01,2013-10-18 10:37:00,
2013-10-18 06:39:00,37.2,37.2,29.90,SW,236,0.0,0.0,100,0.00,,,0.00,0.00,VWS V14.01,2013-10-18 10:39:00,
2013-10-18 06:40:00,37.0,37.0,29.90,SW,236,0.0,0.0,100,0.00,,,0.00,0.00,VWS V14.01,2013-10-18 10:40:00,
2013-10-18 06:42:00,37.4,37.4,29.90,WSW,241,0.0,0.0,100,0.00,,,0.00,0.00,VWS V14.01,2013-10-18 10:42:00,
2013-10-18 06:43:00,36.9,36.9,29.89,WSW,241,0.0,0.0,100,0.00,,,0.00,0.00,VWS V14.01,2013-10-18 10:43:00,
2013-10-18 06:45:00,36.8,36.8,29.90,WSW,241,0.0,0.0,100,0.00,,,0.00,0.00,VWS V14.01,2013-10-18 10:45:00,
2013-10-18 06:47:00,37.0,37.0,29.90,SW,226,1.1,1.1,100,0.00,,,0.00,0.00,VWS V14.01,2013-10-18 10:47:00,
2013-10-18 06:49:00,37.0,37.0,29.90,SW,226,1.1,1.1,100,0.00,,,0.00,0.00,VWS V14.01,2013-10-18 10:49:00,
2013-10-18 06:51:00,37.0,37.0,29.90,SW,220,0.0,0.0,100,0.00,,,0.00,0.00,VWS V14.01,2013-10-18 10:51:00,
2013-10-18 06:52:00,37.2,37.2,29.90,SW,219,1.3,1.3,100,0.00,,,0.00,0.00,VWS V14.01,2013-10-18 10:52:00,
2013-10-18 06:54:00,36.9,36.9,29.90,SW,224,0.0,0.0,100,0.00,,,0.00,0.00,VWS V14.01,2013-10-18 10:54:00,
2013-10-18 06:55:00,37.2,37.2,29.90,SW,224,0.0,0.0,100,0.00,,,0.00,0.00,VWS V14.01,2013-10-18 10:55:00,
2013-10-18 06:57:00,36.8,36.8,29.90,SW,215,0.0,0.0,100,0.00,,,0.00,0.00,VWS V14.01,2013-10-18 10:57:00,
2013-10-18 06:58:00,37.4,37.4,29.90,SW,223,1.3,1.3,100,0.00,,,0.00,0.43,VWS V14.01,2013-10-18 10:58:00,
2013-10-18 07:00:00,37.1,37.1,29.89,SW,227,0.0,0.0,100,0.00,,,0.00,0.00,VWS V14.01,2013-10-18 11:00:00,
2013-10-18 07:01:00,37.2,37.2,29.90,SW,227,0.0,1.8,100,0.00,,,0.00,0.00,VWS V14.01,2013-10-18 11:01:00,
2013-10-18 07:02:00,37.2,37.2,29.90,SW,217,2.8,2.8,100,0.00,,,0.00,0.00,VWS V14.01,2013-10-18 11:02:00,
2013-10-18 07:03:00,37.1,37.1,29.89,SW,227,2.3,2.3,100,0.00,,,0.00,0.00,VWS V14.01,2013-10-18 11:03:00,
2013-10-18 07:04:00,37.0,37.0,29.90,SW,228,0.0,2.3,100,0.00,,,0.00,0.00,VWS V14.01,2013-10-18 11:04:00,
2013-10-18 07:05:00,37.0,37.0,29.90,SW,224,0.0,0.0,100,0.00,,,0.00,0.00,VWS V14.01,2013-10-18 11:05:00,
2013-10-18 07:06:00,37.1,37.1,29.90,SW,225,0.0,0.0,100,0.00,,,0.00,0.00,VWS V14.01,2013-10-18 11:06:00,
2013-10-18 07:07:00,36.8,36.8,29.90,SW,232,0.0,0.0,100,0.00,,,0.00,0.00,VWS V14.01,2013-10-18 11:07:00,
2013-10-18 07:09:00,36.8,36.8,29.90,WSW,238,0.0,0.0,100,0.00,,,0.00,0.00,VWS V14.01,2013-10-18 11:09:00,
2013-10-18 07:13:00,37.1,37.1,29.93,SW,235,0.0,0.0,100,0.00,,,0.00,0.00,VWS V14.01,2013-10-18 11:13:00,
2013-10-18 07:15:00,37.4,37.4,29.90,SW,235,0.0,0.0,100,0.00,,,0.00,0.00,VWS V14.01,2013-10-18 11:15:00,
2013-10-18 07:16:00,37.6,37.6,29.90,SW,235,0.0,0.0,100,0.00,,,0.00,0.00,VWS V14.01,2013-10-18 11:16:00,
2013-10-18 07:17:00,37.3,37.3,29.90,WSW,247,0.0,0.0,100,0.00,,,0.00,0.00,VWS V14.01,2013-10-18 11:17:00,
2013-10-18 07:18:00,37.4,37.4,29.90,WSW,247,0.0,0.0,100,0.00,,,0.00,0.00,VWS V14.01,2013-10-18 11:18:00,
2013-10-18 07:20:00,37.0,37.0,29.90,WSW,244,0.0,0.0,100,0.00,,,0.00,0.00,VWS V14.01,2013-10-18 11:20:00,
2013-10-18 07:21:00,37.0,37.0,29.90,WSW,244,0.0,0.0,100,0.00,,,0.00,0.00,VWS V14.01,2013-10-18 11:21:00,
2013-10-18 07:23:00,37.1,37.1,29.91,WSW,243,0.0,0.0,100,0.00,,,0.00,0.00,VWS V14.01,2013-10-18 11:23:00,
2013-10-18 07:24:00,36.8,36.8,29.90,SW,229,0.0,0.0,100,0.00,,,0.00,0.00,VWS V14.01,2013-10-18 11:24:00,
2013-10-18 07:27:00,36.7,36.7,29.90,SW,230,0.0,0.0,100,0.00,,,0.00,0.00,VWS V14.01,2013-10-18 11:27:00,
2013-10-18 07:28:00,36.8,36.8,29.90,SW,230,0.0,0.0,100,0.00,,,0.00,0.00,VWS V14.01,2013-10-18 11:28:00,
2013-10-18 07:29:00,36.5,36.5,29.90,SW,230,0.0,0.0,100,0.00,,,0.00,0.00,VWS V14.01,2013-10-18 11:29:00,
2013-10-18 07:30:00,36.8,36.8,29.90,SW,230,0.0,0.0,100,0.00,,,0.00,0.00,VWS V14.01,2013-10-18 11:30:00,
2013-10-18 07:32:00,36.8,36.8,29.90,SW,230,0.0,0.0,100,0.00,,,0.00,0.00,VWS V14.01,2013-10-18 11:32:00,
2013-10-18 07:33:00,36.7,36.7,29.90,SW,230,0.0,0.0,100,0.00,,,0.00,0.00,VWS V14.01,2013-10-18 11:33:00,
2013-10-18 07:34:00,36.7,36.7,29.90,SW,229,0.0,0.0,100,0.00,,,0.00,0.00,VWS V14.01,2013-10-18 11:34:00,
2013-10-18 07:36:00,36.7,36.7,29.90,SW,229,0.0,0.0,100,0.00,,,0.00,0.00,VWS V14.01,2013-10-18 11:36:00,
2013-10-18 07:37:00,36.3,36.3,29.90,SW,236,0.0,0.0,100,0.00,,,0.00,0.00,VWS V14.01,2013-10-18 11:37:00,
2013-10-18 07:39:00,36.5,36.5,29.90,SW,235,0.0,0.0,100,0.00,,,0.00,0.00,VWS V14.01,2013-10-18 11:39:00,
2013-10-18 07:41:00,36.5,36.5,29.90,SW,235,0.0,0.0,100,0.00,,,0.00,0.55,VWS V14.01,2013-10-18 11:41:00,
2013-10-18 07:42:00,36.5,36.5,29.90,SW,235,0.0,0.0,100,0.00,,,0.00,0.79,VWS V14.01,2013-10-18 11:42:00,
2013-10-18 07:43:00,36.7,36.7,29.90,SW,235,0.0,0.0,100,0.00,,,0.00,0.00,VWS V14.01,2013-10-18 11:43:00,
2013-10-18 07:46:00,36.8,36.8,29.90,SW,220,0.0,0.0,100,0.00,,,0.00,1.71,VWS V14.01,2013-10-18 11:46:00,
2013-10-18 07:47:00,36.6,36.6,29.90,SW,220,0.0,0.0,100,0.00,,,0.00,1.77,VWS V14.01,2013-10-18 11:47:00,
2013-10-18 07:48:00,36.7,36.7,29.90,SW,220,0.0,0.0,100,0.00,,,0.00,2.26,VWS V14.01,2013-10-18 11:48:00,
2013-10-18 07:49:00,36.6,36.6,29.89,SW,220,0.0,0.0,100,0.00,,,0.00,2.26,VWS V14.01,2013-10-18 11:49:00,
2013-10-18 07:51:00,36.4,36.4,29.90,SW,220,0.0,0.0,100,0.00,,,0.00,2.99,VWS V14.01,2013-10-18 11:51:00,
2013-10-18 07:52:00,36.2,36.2,29.90,SW,220,0.0,0.0,100,0.00,,,0.00,2.93,VWS V14.01,2013-10-18 11:52:00,
2013-10-18 07:53:00,36.6,36.6,29.90,SW,220,0.0,0.0,100,0.00,,,0.00,4.09,VWS V14.01,2013-10-18 11:53:00,
2013-10-18 07:55:00,36.4,36.4,29.90,SW,220,0.0,0.0,100,0.00,,,0.00,3.17,VWS V14.01,2013-10-18 11:55:00,
2013-10-18 07:56:00,35.8,35.8,29.90,SW,220,0.0,0.0,100,0.00,,,0.00,4.40,VWS V14.01,2013-10-18 11:56:00,
2013-10-18 07:58:00,36.1,36.1,29.91,SW,220,0.0,0.0,100,0.00,,,0.00,7.14,VWS V14.01,2013-10-18 11:58:00,
2013-10-18 08:00:00,36.2,36.2,29.90,SW,220,0.0,0.0,100,0.00,,,0.00,7.14,VWS V14.01,2013-10-18 12:00:00,
2013-10-18 08:01:00,36.8,36.8,29.91,SW,220,0.0,0.0,100,0.00,,,0.00,7.57,VWS V14.01,2013-10-18 12:01:00,
2013-10-18 08:02:00,36.5,36.5,29.91,SW,220,0.0,0.0,100,0.00,,,0.00,8.36,VWS V14.01,2013-10-18 12:02:00,
2013-10-18 08:03:00,36.8,36.8,29.91,SW,216,0.0,0.0,100,0.00,,,0.00,10.07,VWS V14.01,2013-10-18 12:03:00,
2013-10-18 08:05:00,36.9,36.9,29.90,SW,224,0.0,0.0,100,0.00,,,0.00,14.10,VWS V14.01,2013-10-18 12:05:00,
2013-10-18 08:06:00,37.2,37.2,29.90,SW,224,0.0,0.0,100,0.00,,,0.00,15.69,VWS V14.01,2013-10-18 12:06:00,
2013-10-18 08:08:00,37.2,37.2,29.90,SW,223,1.1,1.1,100,0.00,,,0.00,19.35,VWS V14.01,2013-10-18 12:08:00,
2013-10-18 08:10:00,37.1,37.1,29.91,SW,222,0.0,0.0,100,0.00,,,0.00,23.20,VWS V14.01,2013-10-18 12:10:00,
2013-10-18 08:11:00,37.3,37.3,29.95,SW,226,0.0,0.0,100,0.00,,,0.00,25.40,VWS V14.01,2013-10-18 12:11:00,
2013-10-18 08:12:00,37.4,37.4,29.91,SW,226,0.0,0.0,100,0.00,,,0.00,28.88,VWS V14.01,2013-10-18 12:12:00,
2013-10-18 08:15:00,37.4,37.4,29.91,SW,225,0.0,0.0,100,0.00,,,0.00,34.00,VWS V14.01,2013-10-18 12:15:00,
2013-10-18 08:16:00,37.8,37.8,29.91,SW,225,0.0,0.0,100,0.00,,,0.00,36.45,VWS V14.01,2013-10-18 12:16:00,
2013-10-18 08:17:00,37.6,37.6,29.91,SW,225,0.0,0.0,100,0.00,,,0.00,38.28,VWS V14.01,2013-10-18 12:17:00,
2013-10-18 08:18:00,38.0,38.0,29.91,SW,225,0.0,0.0,100,0.00,,,0.00,41.33,VWS V14.01,2013-10-18 12:18:00,
2013-10-18 08:20:00,37.7,37.7,29.91,SW,222,0.0,0.0,100,0.00,,,0.00,43.96,VWS V14.01,2013-10-18 12:20:00,
2013-10-18 08:21:00,37.9,37.9,29.92,SW,221,0.0,0.0,100,0.00,,,0.00,46.70,VWS V14.01,2013-10-18 12:21:00,
2013-10-18 08:22:00,38.5,38.5,29.92,SW,221,0.0,0.0,100,0.00,,,0.00,48.90,VWS V14.01,2013-10-18 12:22:00,
2013-10-18 08:23:00,38.3,38.3,29.91,SW,222,0.0,0.0,100,0.00,,,0.00,51.10,VWS V14.01,2013-10-18 12:23:00,
2013-10-18 08:26:00,39.3,39.3,29.91,SW,221,0.0,0.0,100,0.00,,,0.00,58.12,VWS V14.01,2013-10-18 12:26:00,
2013-10-18 08:27:00,39.4,39.4,29.91,SW,221,0.0,0.0,100,0.00,,,0.00,58.42,VWS V14.01,2013-10-18 12:27:00,
2013-10-18 08:28:00,39.5,39.5,29.91,SW,221,0.0,0.0,100,0.00,,,0.00,61.60,VWS V14.01,2013-10-18 12:28:00,
2013-10-18 08:29:00,39.8,39.8,29.91,SW,221,0.0,0.0,100,0.00,,,0.00,62.03,VWS V14.01,2013-10-18 12:29:00,
2013-10-18 08:31:00,40.6,40.6,29.91,SW,221,0.0,0.0,100,0.00,,,0.00,70.39,VWS V14.01,2013-10-18 12:31:00,
2013-10-18 08:32:00,40.5,40.5,29.91,SW,221,0.0,0.0,100,0.00,,,0.00,71.12,VWS V14.01,2013-10-18 12:32:00,
2013-10-18 08:33:00,40.2,40.2,29.91,SW,221,0.0,0.0,100,0.00,,,0.00,75.52,VWS V14.01,2013-10-18 12:33:00,
2013-10-18 08:34:00,40.2,40.2,29.91,SW,221,0.0,0.0,100,0.00,,,0.00,77.96,VWS V14.01,2013-10-18 12:34:00,
2013-10-18 08:37:00,39.3,39.3,29.91,SW,221,0.0,0.0,100,0.00,,,0.00,83.58,VWS V14.01,2013-10-18 12:37:00,
2013-10-18 08:39:00,38.9,38.9,29.91,SSW,212,0.0,0.0,100,0.00,,,0.00,87.42,VWS V14.01,2013-10-18 12:39:00,
2013-10-18 08:40:00,39.6,39.6,29.92,SSW,210,0.0,0.0,100,0.00,,,0.00,89.87,VWS V14.01,2013-10-18 12:40:00,
2013-10-18 08:41:00,39.4,39.4,29.92,SSW,210,0.0,0.0,100,0.00,,,0.00,89.87,VWS V14.01,2013-10-18 12:41:00,
2013-10-18 08:43:00,40.5,40.5,29.92,SW,221,0.0,0.0,100,0.00,,,0.00,97.50,VWS V14.01,2013-10-18 12:43:00,
2013-10-18 08:45:00,40.2,40.2,29.91,SSW,208,0.0,0.0,100,0.00,,,0.00,101.10,VWS V14.01,2013-10-18 12:45:00,
2013-10-18 08:46:00,39.4,39.4,29.91,SSW,200,0.0,2.0,100,0.00,,,0.00,104.82,VWS V14.01,2013-10-18 12:46:00,
2013-10-18 08:47:00,39.5,39.5,29.92,SSW,196,0.0,0.0,100,0.00,,,0.00,106.96,VWS V14.01,2013-10-18 12:47:00,
2013-10-18 08:48:00,39.5,39.5,29.92,SSW,196,0.0,0.0,100,0.00,,,0.00,106.96,VWS V14.01,2013-10-18 12:48:00,
2013-10-18 08:49:00,39.6,39.6,29.92,SSW,200,0.0,1.1,100,0.00,,,0.00,111.17,VWS V14.01,2013-10-18 12:49:00,
2013-10-18 08:51:00,39.6,39.6,29.91,SSW,198,0.0,1.5,100,0.00,,,0.00,114.84,VWS V14.01,2013-10-18 12:51:00,
2013-10-18 08:52:00,39.8,39.8,29.91,SSW,199,1.1,1.6,100,0.00,,,0.00,119.47,VWS V14.01,2013-10-18 12:52:00,
2013-10-18 08:53:00,39.9,39.9,29.92,SSW,198,1.3,1.6,100,0.00,,,0.00,120.45,VWS V14.01,2013-10-18 12:53:00,
2013-10-18 08:54:00,40.1,40.1,29.90,SSW,203,2.8,2.8,100,0.00,,,0.00,124.36,VWS V14.01,2013-10-18 12:54:00,
2013-10-18 08:55:00,40.1,40.1,29.90,SSW,209,0.0,2.8,100,0.00,,,0.00,124.60,VWS V14.01,2013-10-18 12:55:00,
2013-10-18 08:57:00,40.3,40.3,29.91,SSW,206,2.5,2.5,100,0.00,,,0.00,131.07,VWS V14.01,2013-10-18 12:57:00,
2013-10-18 08:58:00,40.3,40.2,29.91,South,189,2.2,2.5,100,0.00,,,0.00,131.38,VWS V14.01,2013-10-18 12:58:00,
2013-10-18 08:59:00,40.5,40.1,29.91,SSW,205,0.0,2.2,98,0.00,,,0.00,134.74,VWS V14.01,2013-10-18 12:59:00,
2013-10-18 09:02:00,40.9,39.3,29.91,SSW,208,3.4,3.4,94,0.00,,,0.00,141.45,VWS V14.01,2013-10-18 13:02:00,
2013-10-18 09:03:00,41.2,39.4,29.92,SW,217,4.4,4.4,93,0.00,,,0.00,141.64,VWS V14.01,2013-10-18 13:03:00,
2013-10-18 09:04:00,41.6,39.6,29.95,SW,215,2.2,2.2,92,0.00,,,0.00,145.05,VWS V14.01,2013-10-18 13:04:00,
2013-10-18 09:05:00,41.2,38.9,29.92,SSW,207,2.0,2.0,91,0.00,,,0.00,146.95,VWS V14.01,2013-10-18 13:05:00,
2013-10-18 09:07:00,41.2,38.1,29.90,SSW,203,4.0,4.0,89,0.00,,,0.00,152.44,VWS V14.01,2013-10-18 13:07:00,
2013-10-18 09:08:00,42.0,39.0,29.91,SSW,209,2.0,4.0,89,0.00,,,0.00,153.66,VWS V14.01,2013-10-18 13:08:00,
2013-10-18 09:09:00,42.7,39.7,29.91,SW,226,2.5,2.5,89,0.00,,,0.00,156.84,VWS V14.01,2013-10-18 13:09:00,
2013-10-18 09:10:00,43.1,40.1,29.91,WSW,247,1.3,2.5,89,0.00,,,0.00,158.55,VWS V14.01,2013-10-18 13:10:00,
2013-10-18 09:11:00,41.9,38.4,29.91,SSW,203,3.2,3.2,87,0.00,,,0.00,158.97,VWS V14.01,2013-10-18 13:11:00,
2013-10-18 09:13:00,42.1,37.8,29.91,WSW,239,3.0,3.2,84,0.00,,,0.00,166.36,VWS V14.01,2013-10-18 13:13:00,
2013-10-18 09:16:00,43.1,38.6,29.91,SW,226,3.0,3.0,84,0.00,,,0.00,166.48,VWS V14.01,2013-10-18 13:16:00,
2013-10-18 09:18:00,43.8,38.8,29.91,SW,222,2.8,3.4,82,0.00,,,0.00,175.89,VWS V14.01,2013-10-18 13:18:00,
2013-10-18 09:19:00,43.4,38.1,29.91,SW,221,4.7,4.7,81,0.00,,,0.00,177.84,VWS V14.01,2013-10-18 13:19:00,
2013-10-18 09:20:00,44.2,39.0,29.91,SW,218,2.7,4.2,82,0.00,,,0.00,180.53,VWS V14.01,2013-10-18 13:20:00,
2013-10-18 09:22:00,44.2,39.3,29.92,SW,222,3.7,3.7,83,0.00,,,0.00,181.99,VWS V14.01,2013-10-18 13:22:00,
2013-10-18 09:23:00,43.6,38.6,29.90,SW,223,4.2,6.3,82,0.00,,,0.00,185.16,VWS V14.01,2013-10-18 13:23:00,
2013-10-18 09:24:00,42.8,37.7,29.91,WSW,246,4.5,4.5,82,0.00,,,0.00,187.55,VWS V14.01,2013-10-18 13:24:00,
2013-10-18 09:27:00,43.8,39.0,29.92,SW,233,5.2,5.2,83,0.00,,,0.00,195.12,VWS V14.01,2013-10-18 13:27:00,
2013-10-18 09:28:00,43.7,38.7,29.91,SW,235,4.0,5.2,82,0.00,,,0.00,199.51,VWS V14.01,2013-10-18 13:28:00,
2013-10-18 09:29:00,43.0,37.7,29.92,West,260,5.2,5.2,81,0.00,,,0.00,197.62,VWS V14.01,2013-10-18 13:29:00,
2013-10-18 09:32:00,44.0,38.9,29.91,SW,227,7.8,7.8,82,0.00,,,0.00,204.95,VWS V14.01,2013-10-18 13:32:00,
2013-10-18 09:34:00,43.7,38.2,29.91,SSW,213,6.6,10.4,81,0.00,,,0.00,209.04,VWS V14.01,2013-10-18 13:34:00,
2013-10-18 09:35:00,44.1,38.5,29.91,SW,227,6.9,7.8,81,0.00,,,0.00,211.42,VWS V14.01,2013-10-18 13:35:00,
2013-10-18 09:37:00,44.4,38.9,29.91,WSW,249,5.2,7.1,81,0.00,,,0.00,214.71,VWS V14.01,2013-10-18 13:37:00,
2013-10-18 09:40:00,44.3,39.0,29.91,SW,227,6.4,6.9,81,0.00,,,0.00,223.26,VWS V14.01,2013-10-18 13:40:00,
2013-10-18 09:41:00,44.6,38.8,29.95,WSW,239,6.3,6.4,80,0.00,,,0.00,223.87,VWS V14.01,2013-10-18 13:41:00,
2013-10-18 09:42:00,44.9,38.9,29.92,SW,234,7.3,7.3,79,0.00,,,0.00,226.50,VWS V14.01,2013-10-18 13:42:00,
2013-10-18 09:43:00,44.5,38.2,29.91,SW,221,8.5,8.5,79,0.00,,,0.00,227.11,VWS V14.01,2013-10-18 13:43:00,
2013-10-18 09:46:00,44.3,38.2,29.91,WSW,239,9.7,9.7,79,0.00,,,0.00,236.45,VWS V14.01,2013-10-18 13:46:00,
2013-10-18 09:48:00,45.2,38.6,29.92,SW,223,7.6,8.1,78,0.00,,,0.00,239.74,VWS V14.01,2013-10-18 13:48:00,
2013-10-18 09:49:00,45.5,38.7,29.91,WSW,240,6.8,9.7,77,0.00,,,0.00,244.02,VWS V14.01,2013-10-18 13:49:00,
2013-10-18 09:52:00,45.5,38.8,29.92,SW,235,8.3,9.5,77,0.00,,,0.00,246.46,VWS V14.01,2013-10-18 13:52:00,
2013-10-18 09:53:00,45.1,38.8,29.91,WSW,246,4.7,8.3,78,0.00,,,0.00,247.74,VWS V14.01,2013-10-18 13:53:00,
2013-10-18 09:54:00,45.8,38.9,29.91,WSW,237,7.5,7.5,77,0.00,,,0.00,251.34,VWS V14.01,2013-10-18 13:54:00,
2013-10-18 09:56:00,45.4,37.7,29.92,SW,235,9.5,9.5,74,0.00,,,0.00,258.67,VWS V14.01,2013-10-18 13:56:00,
2013-10-18 09:57:00,46.2,38.1,29.91,SW,215,9.0,9.5,73,0.00,,,0.00,260.62,VWS V14.01,2013-10-18 13:57:00,
2013-10-18 09:59:00,46.6,39.6,29.90,SW,233,6.8,6.8,76,0.00,,,0.00,260.81,VWS V14.01,2013-10-18 13:59:00,
2013-10-18 10:00:00,46.2,39.3,29.91,WSW,246,6.6,9.2,77,0.00,,,0.00,265.20,VWS V14.01,2013-10-18 14:00:00,
2013-10-18 10:01:00,46.8,39.9,29.91,SW,231,7.8,7.8,77,0.00,,,0.00,264.04,VWS V14.01,2013-10-18 14:01:00,
2013-10-18 10:02:00,47.0,39.6,29.91,WSW,238,6.8,7.8,75,0.00,,,0.00,271.55,VWS V14.01,2013-10-18 14:02:00,
2013-10-18 10:04:00,45.7,38.0,29.91,WSW,252,8.7,10.0,74,0.00,,,0.00,273.02,VWS V14.01,2013-10-18 14:04:00,
2013-10-18 10:05:00,47.4,39.3,29.91,SW,236,6.4,8.7,73,0.00,,,0.00,275.76,VWS V14.01,2013-10-18 14:05:00,
2013-10-18 10:06:00,46.5,39.0,29.90,West,275,6.3,6.4,75,0.00,,,0.00,273.02,VWS V14.01,2013-10-18 14:06:00,
2013-10-18 10:07:00,46.7,38.3,29.90,WSW,237,11.1,11.1,72,0.00,,,0.00,280.65,VWS V14.01,2013-10-18 14:07:00,
2013-10-18 10:09:00,46.9,38.3,29.91,SW,236,7.8,10.4,72,0.00,,,0.00,280.53,VWS V14.01,2013-10-18 14:09:00,
2013-10-18 10:11:00,46.1,37.2,29.91,WSW,249,10.9,10.9,71,0.00,,,0.00,286.75,VWS V14.01,2013-10-18 14:11:00,
2013-10-18 10:12:00,46.5,38.4,29.90,WSW,250,7.8,9.9,73,0.00,,,0.00,285.53,VWS V14.01,2013-10-18 14:12:00,
2013-10-18 10:13:00,47.8,39.9,29.91,WSW,239,6.1,9.2,74,0.00,,,0.00,292.61,VWS V14.01,2013-10-18 14:13:00,
2013-10-18 10:14:00,47.9,39.8,29.90,SW,220,9.0,9.0,73,0.00,,,0.00,295.30,VWS V14.01,2013-10-18 14:14:00,
2013-10-18 10:15:00,47.7,38.2,29.91,SW,225,10.9,10.9,69,0.00,,,0.00,298.90,VWS V14.01,2013-10-18 14:15:00,
2013-10-18 10:17:00,46.8,37.5,29.91,WSW,242,7.1,9.9,70,0.00,,,0.00,297.44,VWS V14.01,2013-10-18 14:17:00,
2013-10-18 10:19:00,48.2,38.9,29.91,SW,230,7.5,10.2,70,0.00,,,0.00,306.29,VWS V14.01,2013-10-18 14:19:00,
2013-10-18 10:20:00,48.0,38.8,29.91,SW,230,6.3,7.5,70,0.00,,,0.00,307.51,VWS V14.01,2013-10-18 14:20:00,
2013-10-18 10:21:00,47.9,37.6,29.91,WSW,237,9.9,9.9,67,0.00,,,0.00,310.38,VWS V14.01,2013-10-18 14:21:00,
2013-10-18 10:22:00,47.9,37.9,29.91,WSW,250,7.6,9.9,68,0.00,,,0.00,310.81,VWS V14.01,2013-10-18 14:22:00,
2013-10-18 10:24:00,48.0,37.2,29.90,SW,214,8.8,11.2,66,0.00,,,0.00,307.75,VWS V14.01,2013-10-18 14:24:00,
2013-10-18 10:26:00,49.0,38.7,29.90,WSW,238,6.6,11.7,67,0.00,,,0.00,317.28,VWS V14.01,2013-10-18 14:26:00,
2013-10-18 10:27:00,48.8,38.3,29.90,WSW,250,7.5,7.5,67,0.00,,,0.00,323.75,VWS V14.01,2013-10-18 14:27:00,
2013-10-18 10:28:00,48.4,37.0,29.90,SW,233,11.2,11.2,64,0.00,,,0.00,324.60,VWS V14.01,2013-10-18 14:28:00,
2013-10-18 10:29:00,48.7,37.7,29.90,WSW,242,10.7,11.2,66,0.00,,,0.00,324.60,VWS V14.01,2013-10-18 14:29:00,
2013-10-18 10:30:00,48.7,37.5,29.90,SW,228,9.9,11.4,65,0.00,,,0.00,327.59,VWS V14.01,2013-10-18 14:30:00,
2013-10-18 10:32:00,49.7,39.2,29.91,SW,235,6.6,8.1,67,0.00,,,0.00,327.90,VWS V14.01,2013-10-18 14:32:00,
2013-10-18 10:33:00,48.0,36.6,29.91,SW,233,7.8,8.7,64,0.00,,,0.00,331.93,VWS V14.01,2013-10-18 14:33:00,
2013-10-18 10:34:00,49.3,37.4,29.90,SW,226,10.7,10.7,63,0.00,,,0.00,337.06,VWS V14.01,2013-10-18 14:34:00,
2013-10-18 10:35:00,49.4,37.6,29.90,WSW,242,7.3,10.7,64,0.00,,,0.00,343.41,VWS V14.01,2013-10-18 14:35:00,
2013-10-18 10:36:00,50.7,39.8,29.91,WSW,243,5.1,7.3,66,0.00,,,0.00,344.14,VWS V14.01,2013-10-18 14:36:00,
2013-10-18 10:37:00,48.3,35.6,29.90,WSW,254,9.7,9.7,61,0.00,,,0.00,346.58,VWS V14.01,2013-10-18 14:37:00,
2013-10-18 10:39:00,49.4,37.6,29.90,WSW,253,8.5,8.5,64,0.00,,,0.00,350.43,VWS V14.01,2013-10-18 14:39:00,
2013-10-18 10:40:00,49.7,37.7,29.91,SW,236,8.7,8.7,63,0.00,,,0.00,349.02,VWS V14.01,2013-10-18 14:40:00,
2013-10-18 10:41:00,50.7,39.3,29.90,West,259,6.6,8.7,65,0.00,,,0.00,351.65,VWS V14.01,2013-10-18 14:41:00,
2013-10-18 10:43:00,50.0,37.6,29.89,SW,225,9.3,9.9,62,0.00,,,0.00,358.79,VWS V14.01,2013-10-18 14:43:00,
2013-10-18 10:44:00,49.9,37.2,29.89,SW,222,9.3,9.9,61,0.00,,,0.00,361.23,VWS V14.01,2013-10-18 14:44:00,
2013-10-18 10:45:00,50.8,37.9,29.90,WSW,239,5.9,9.3,61,0.00,,,0.00,363.68,VWS V14.01,2013-10-18 14:45:00,
2013-10-18 10:46:00,49.9,36.5,29.90,WSW,241,10.2,10.2,60,0.00,,,0.00,365.81,VWS V14.01,2013-10-18 14:46:00,
2013-10-18 10:49:00,50.2,36.7,29.90,SW,224,9.5,10.5,59,0.00,,,0.00,371.00,VWS V14.01,2013-10-18 14:49:00,
2013-10-18 10:51:00,50.8,36.6,29.91,SW,233,8.1,8.5,58,0.00,,,0.00,376.07,VWS V14.01,2013-10-18 14:51:00,
2013-10-18 10:52:00,50.3,36.3,29.91,SW,218,8.7,8.7,59,0.00,,,0.00,376.50,VWS V14.01,2013-10-18 14:52:00,
2013-10-18 10:53:00,50.7,37.0,29.90,South,191,8.7,8.7,59,0.00,,,0.00,377.59,VWS V14.01,2013-10-18 14:53:00,
2013-10-18 10:55:00,51.3,36.4,29.90,WSW,247,9.2,9.5,57,0.00,,,0.00,386.33,VWS V14.01,2013-10-18 14:55:00,
2013-10-18 10:57:00,50.9,36.4,29.90,SW,218,9.0,9.3,57,0.00,,,0.00,388.16,VWS V14.01,2013-10-18 14:57:00,
2013-10-18 10:58:00,52.5,38.5,29.90,SW,221,6.9,10.5,59,0.00,,,0.00,387.12,VWS V14.01,2013-10-18 14:58:00,
2013-10-18 11:02:00,52.5,37.0,29.90,SW,228,10.2,10.2,55,0.00,,,0.00,397.86,VWS V14.01,2013-10-18 15:02:00,
2013-10-18 11:03:00,52.5,37.0,29.90,SW,228,10.2,10.2,55,0.00,,,0.00,397.86,VWS V14.01,2013-10-18 15:03:00,
2013-10-18 11:04:00,52.0,35.5,29.90,SW,223,9.5,9.5,53,0.00,,,0.00,400.00,VWS V14.01,2013-10-18 15:04:00,
2013-10-18 11:05:00,52.3,36.5,29.89,SW,226,8.8,8.8,55,0.00,,,0.00,402.44,VWS V14.01,2013-10-18 15:05:00,
2013-10-18 11:08:00,52.6,36.3,29.93,WSW,242,7.3,10.2,54,0.00,,,0.00,410.07,VWS V14.01,2013-10-18 15:08:00,
2013-10-18 11:09:00,53.6,38.3,29.91,SW,225,5.7,7.3,56,0.00,,,0.00,411.29,VWS V14.01,2013-10-18 15:09:00,
2013-10-18 11:10:00,52.4,35.7,29.90,SW,224,10.9,10.9,53,0.00,,,0.00,412.52,VWS V14.01,2013-10-18 15:10:00,
2013-10-18 11:11:00,53.2,36.6,29.89,SW,226,9.0,10.5,53,0.00,,,0.00,412.21,VWS V14.01,2013-10-18 15:11:00,
2013-10-18 11:14:00,53.3,37.0,29.89,WSW,250,7.1,7.1,54,0.00,,,0.00,411.54,VWS V14.01,2013-10-18 15:14:00,
2013-10-18 11:15:00,53.0,36.6,29.90,WSW,243,5.7,7.1,53,0.00,,,0.00,417.16,VWS V14.01,2013-10-18 15:15:00,
2013-10-18 11:16:00,52.7,34.6,29.90,WSW,243,8.3,8.3,50,0.00,,,0.00,419.54,VWS V14.01,2013-10-18 15:16:00,
2013-10-18 11:17:00,52.7,33.8,29.89,WSW,242,10.4,10.4,48,0.00,,,0.00,424.48,VWS V14.01,2013-10-18 15:17:00,
2013-10-18 11:18:00,52.6,34.2,29.89,WSW,248,9.3,10.4,49,0.00,,,0.00,427.53,VWS V14.01,2013-10-18 15:18:00,
2013-10-18 11:21:00,52.8,33.7,29.90,WSW,248,8.3,8.8,48,0.00,,,0.00,429.30,VWS V14.01,2013-10-18 15:21:00,
2013-10-18 11:24:00,54.5,36.2,29.87,WSW,250,6.3,7.6,50,0.00,,,0.00,434.49,VWS V14.01,2013-10-18 15:24:00,
2013-10-18 11:25:00,53.9,35.2,29.88,SW,235,10.0,10.0,49,0.00,,,0.00,437.24,VWS V14.01,2013-10-18 15:25:00,
2013-10-18 11:26:00,53.9,33.8,29.89,SW,229,8.1,10.0,46,0.00,,,0.00,439.26,VWS V14.01,2013-10-18 15:26:00,
2013-10-18 11:27:00,53.3,33.8,29.89,WSW,243,7.5,8.5,47,0.00,,,0.00,439.62,VWS V14.01,2013-10-18 15:27:00,
2013-10-18 11:29:00,53.9,35.0,29.89,SW,236,7.6,7.6,49,0.00,,,0.00,443.77,VWS V14.01,2013-10-18 15:29:00,
2013-10-18 11:31:00,54.0,34.4,29.89,SW,236,8.3,10.4,47,0.00,,,0.00,446.70,VWS V14.01,2013-10-18 15:31:00,
2013-10-18 11:33:00,53.1,33.1,29.89,WSW,244,10.0,10.4,46,0.00,,,0.00,449.15,VWS V14.01,2013-10-18 15:33:00,
2013-10-18 11:34:00,53.2,32.9,29.89,WSW,253,11.1,11.1,46,0.00,,,0.00,450.86,VWS V14.01,2013-10-18 15:34:00,
2013-10-18 11:35:00,53.3,32.7,29.89,West,262,10.5,10.5,45,0.00,,,0.00,451.53,VWS V14.01,2013-10-18 15:35:00,
2013-10-18 11:37:00,53.8,32.9,29.89,WSW,250,9.7,9.7,45,0.00,,,0.00,456.47,VWS V14.01,2013-10-18 15:37:00,
2013-10-18 11:39:00,53.7,32.4,29.87,WSW,239,8.7,8.8,44,0.00,,,0.00,458.91,VWS V14.01,2013-10-18 15:39:00,
2013-10-18 11:40:00,54.1,33.2,29.87,WSW,242,10.9,10.9,45,0.00,,,0.00,458.91,VWS V14.01,2013-10-18 15:40:00,
2013-10-18 11:41:00,53.2,33.7,29.88,WSW,250,6.8,10.9,47,0.00,,,0.00,461.05,VWS V14.01,2013-10-18 15:41:00,
2013-10-18 11:42:00,54.8,35.2,29.88,WSW,240,8.8,8.8,47,0.00,,,0.00,461.84,VWS V14.01,2013-10-18 15:42:00,
2013-10-18 11:43:00,55.0,35.7,29.88,WSW,242,7.6,9.2,48,0.00,,,0.00,464.77,VWS V14.01,2013-10-18 15:43:00,
2013-10-18 11:46:00,55.6,35.4,29.89,SW,235,6.6,10.9,46,0.00,,,0.00,469.41,VWS V14.01,2013-10-18 15:46:00,
2013-10-18 11:47:00,55.0,32.7,29.88,SW,232,10.5,13.8,43,0.00,,,0.00,471.37,VWS V14.01,2013-10-18 15:47:00,
2013-10-18 11:48:00,55.5,34.3,29.89,SW,228,7.8,11.2,45,0.00,,,0.00,473.99,VWS V14.01,2013-10-18 15:48:00,
2013-10-18 11:49:00,54.7,32.0,29.89,SW,222,10.5,10.5,42,0.00,,,0.00,476.01,VWS V14.01,2013-10-18 15:49:00,
2013-10-18 11:51:00,55.6,33.6,29.88,SW,231,10.0,10.0,43,0.00,,,0.00,476.01,VWS V14.01,2013-10-18 15:51:00,
2013-10-18 11:52:00,54.7,32.4,29.87,WSW,243,11.2,11.2,43,0.00,,,0.00,480.04,VWS V14.01,2013-10-18 15:52:00,
2013-10-18 11:53:00,55.4,33.1,29.88,SW,233,9.5,11.4,43,0.00,,,0.00,480.65,VWS V14.01,2013-10-18 15:53:00,
2013-10-18 11:54:00,55.2,33.5,29.88,West,263,8.8,9.5,44,0.00,,,0.00,481.14,VWS V14.01,2013-10-18 15:54:00,
2013-10-18 11:57:00,56.3,35.5,29.89,WSW,245,8.8,8.8,45,0.00,,,0.00,480.46,VWS V14.01,2013-10-18 15:57:00,
2013-10-18 11:58:00,56.0,34.1,29.91,SW,235,7.5,8.8,43,0.00,,,0.00,483.58,VWS V14.01,2013-10-18 15:58:00,
2013-10-18 11:59:00,55.8,32.2,29.89,SW,235,9.2,9.2,41,0.00,,,0.00,470.15,VWS V14.01,2013-10-18 15:59:00,
2013-10-18 12:00:00,55.8,32.2,29.89,SW,235,9.2,9.2,41,0.00,,,0.00,470.15,VWS V14.01,2013-10-18 16:00:00,
2013-10-18 12:03:00,55.8,32.7,29.88,SW,233,9.5,12.6,41,0.00,,,0.00,63.31,VWS V14.01,2013-10-18 16:03:00,
2013-10-18 12:04:00,56.2,33.5,29.88,SW,223,9.2,9.2,42,0.00,,,0.00,63.06,VWS V14.01,2013-10-18 16:04:00,
2013-10-18 12:05:00,56.2,33.5,29.88,SW,223,9.2,9.2,42,0.00,,,0.00,63.06,VWS V14.01,2013-10-18 16:05:00,
2013-10-18 12:09:00,56.6,33.6,29.88,WSW,254,8.7,12.9,42,0.00,,,0.00,61.78,VWS V14.01,2013-10-18 16:09:00,
2013-10-18 12:10:00,56.2,32.5,29.88,WSW,238,10.2,10.5,41,0.00,,,0.00,62.58,VWS V14.01,2013-10-18 16:10:00,
2013-10-18 12:11:00,55.6,31.7,29.89,SW,231,11.6,11.6,40,0.00,,,0.00,62.21,VWS V14.01,2013-10-18 16:11:00,
2013-10-18 12:12:00,57.3,35.5,29.89,SW,234,7.1,11.6,44,0.00,,,0.00,62.33,VWS V14.01,2013-10-18 16:12:00,
2013-10-18 12:14:00,56.3,32.0,29.89,WSW,248,10.0,10.0,39,0.00,,,0.00,63.92,VWS V14.01,2013-10-18 16:14:00,
2013-10-18 12:15:00,56.6,32.5,29.88,SSW,203,10.5,10.5,40,0.00,,,0.00,63.92,VWS V14.01,2013-10-18 16:15:00,
2013-10-18 12:16:00,56.7,33.2,29.88,WSW,247,9.7,10.5,41,0.00,,,0.00,63.31,VWS V14.01,2013-10-18 16:16:00,
2013-10-18 12:17:00,55.9,30.7,29.89,WSW,250,8.5,8.7,38,0.00,,,0.00,324.60,VWS V14.01,2013-10-18 16:17:00,
2013-10-18 12:18:00,57.5,33.9,29.89,WSW,237,6.8,8.5,41,0.00,,,0.00,440.35,VWS V14.01,2013-10-18 16:18:00,
2013-10-18 12:20:00,57.0,33.2,29.88,SW,233,13.8,13.8,40,0.00,,,0.00,508.43,VWS V14.01,2013-10-18 16:20:00,
2013-10-18 12:21:00,56.8,31.6,29.88,SSW,212,9.2,14.8,38,0.00,,,0.00,509.59,VWS V14.01,2013-10-18 16:21:00,
2013-10-18 12:22:00,57.1,33.0,29.89,SW,225,8.7,10.7,40,0.00,,,0.00,512.82,VWS V14.01,2013-10-18 16:22:00,
2013-10-18 12:23:00,58.0,35.5,29.89,WSW,246,8.0,8.3,43,0.00,,,0.00,516.79,VWS V14.01,2013-10-18 16:23:00,
2013-10-18 12:24:00,58.0,35.5,29.89,WSW,246,8.0,8.3,43,0.00,,,0.00,516.79,VWS V14.01,2013-10-18 16:24:00,
2013-10-18 12:25:00,56.6,31.7,29.88,WSW,244,10.7,10.7,39,0.00,,,0.00,518.74,VWS V14.01,2013-10-18 16:25:00,
2013-10-18 12:26:00,57.6,32.8,29.87,SSW,209,10.2,10.4,39,0.00,,,0.00,517.52,VWS V14.01,2013-10-18 16:26:00,
2013-10-18 12:28:00,57.8,32.2,29.87,WSW,237,7.3,9.5,38,0.00,,,0.00,519.35,VWS V14.01,2013-10-18 16:28:00,
2013-10-18 12:29:00,58.7,35.3,29.88,SW,230,7.8,7.8,41,0.00,,,0.00,519.72,VWS V14.01,2013-10-18 16:29:00,
2013-10-18 12:30:00,58.2,33.4,29.88,WSW,242,9.0,11.2,39,0.00,,,0.00,523.02,VWS V14.01,2013-10-18 16:30:00,
2013-10-18 12:31:00,57.5,31.4,29.88,SW,235,12.4,12.4,37,0.00,,,0.00,488.71,VWS V14.01,2013-10-18 16:31:00,
2013-10-18 12:35:00,57.7,31.4,29.88,WSW,243,14.1,14.1,37,0.00,,,0.00,525.15,VWS V14.01,2013-10-18 16:35:00,
2013-10-18 12:36:00,56.8,30.1,29.87,WSW,248,12.1,12.1,36,0.00,,,0.00,526.50,VWS V14.01,2013-10-18 16:36:00,
2013-10-18 12:37:00,58.4,33.5,29.88,SW,235,7.3,12.1,39,0.00,,,0.00,527.29,VWS V14.01,2013-10-18 16:37:00,
2013-10-18 12:39:00,58.3,31.9,29.87,WSW,245,10.0,10.0,37,0.00,,,0.00,530.04,VWS V14.01,2013-10-18 16:39:00,
2013-10-18 12:40:00,57.9,30.7,29.87,SW,231,8.5,10.0,35,0.00,,,0.00,529.18,VWS V14.01,2013-10-18 16:40:00,
2013-10-18 12:42:00,57.1,30.9,29.88,WSW,254,11.2,11.2,37,0.00,,,0.00,527.29,VWS V14.01,2013-10-18 16:42:00,
2013-10-18 12:43:00,58.2,31.9,29.88,SW,234,10.0,10.0,37,0.00,,,0.00,525.76,VWS V14.01,2013-10-18 16:43:00,
2013-10-18 12:44:00,58.0,31.4,29.87,WSW,249,10.7,12.1,36,0.00,,,0.00,446.40,VWS V14.01,2013-10-18 16:44:00,
2013-10-18 12:46:00,57.7,31.4,29.87,WSW,257,9.0,10.7,37,0.00,,,0.00,532.42,VWS V14.01,2013-10-18 16:46:00,
2013-10-18 12:47:00,57.3,29.4,29.87,WSW,241,11.9,11.9,34,0.00,,,0.00,533.82,VWS V14.01,2013-10-18 16:47:00,
2013-10-18 12:48:00,57.4,30.6,29.86,WNW,289,9.5,11.9,36,0.00,,,0.00,533.33,VWS V14.01,2013-10-18 16:48:00,
2013-10-18 12:50:00,58.7,33.0,29.87,SW,228,9.7,9.7,38,0.00,,,0.00,537.06,VWS V14.01,2013-10-18 16:50:00,
2013-10-18 12:51:00,58.4,30.9,29.87,SW,230,11.9,11.9,35,0.00,,,0.00,537.67,VWS V14.01,2013-10-18 16:51:00,
2013-10-18 12:52:00,59.6,34.5,29.87,West,262,8.5,10.4,39,0.00,,,0.00,538.10,VWS V14.01,2013-10-18 16:52:00,
2013-10-18 12:53:00,58.3,30.1,29.87,WSW,246,10.4,10.4,34,0.00,,,0.00,537.30,VWS V14.01,2013-10-18 16:53:00,
2013-10-18 12:55:00,58.9,31.5,29.87,SW,217,11.2,11.2,35,0.00,,,0.00,534.86,VWS V14.01,2013-10-18 16:55:00,
2013-10-18 12:56:00,57.4,29.2,29.87,WSW,250,10.2,11.2,34,0.00,,,0.00,537.06,VWS V14.01,2013-10-18 16:56:00,
2013-10-18 12:58:00,59.0,31.2,29.87,SW,232,7.5,7.5,35,0.00,,,0.00,529.43,VWS V14.01,2013-10-18 16:58:00,
2013-10-18 12:59:00,59.6,32.1,29.86,SW,223,10.2,10.2,35,0.00,,,0.00,473.99,VWS V14.01,2013-10-18 16:59:00,
2013-10-18 13:00:00,58.2,30.8,29.85,SSW,209,9.9,11.7,35,0.00,,,0.00,522.41,VWS V14.01,2013-10-18 17:00:00,
2013-10-18 13:01:00,58.3,31.0,29.86,SW,231,10.9,10.9,35,0.00,,,0.00,537.91,VWS V14.01,2013-10-18 17:01:00,
2013-10-18 13:04:00,58.0,28.5,29.87,WSW,247,12.8,12.8,32,0.00,,,0.00,541.21,VWS V14.01,2013-10-18 17:04:00,
2013-10-18 13:05:00,59.3,31.3,29.86,WSW,251,12.1,12.8,35,0.00,,,0.00,542.67,VWS V14.01,2013-10-18 17:05:00,
2013-10-18 13:06:00,58.3,28.8,29.86,SW,234,12.1,14.1,32,0.00,,,0.00,541.94,VWS V14.01,2013-10-18 17:06:00,
2013-10-18 13:07:00,59.2,31.3,29.87,SW,223,9.9,14.1,35,0.00,,,0.00,541.94,VWS V14.01,2013-10-18 17:07:00,
2013-10-18 13:09:00,59.2,31.3,29.87,SW,234,8.0,14.1,35,0.00,,,0.00,540.48,VWS V14.01,2013-10-18 17:09:00,
2013-10-18 13:10:00,59.2,30.7,29.86,WSW,246,9.0,14.1,34,0.00,,,0.00,541.94,VWS V14.01,2013-10-18 17:10:00,
2013-10-18 13:11:00,59.0,29.3,29.86,WSW,239,7.5,14.1,32,0.00,,,0.00,543.04,VWS V14.01,2013-10-18 17:11:00,
2013-10-18 13:12:00,58.8,29.7,29.85,SW,227,8.8,14.1,33,0.00,,,0.00,542.86,VWS V14.01,2013-10-18 17:12:00,
2013-10-18 13:15:00,58.7,29.5,29.86,WSW,249,11.1,14.5,33,0.00,,,0.00,542.80,VWS V14.01,2013-10-18 17:15:00,
2013-10-18 13:16:00,59.8,31.4,29.86,SW,231,9.5,14.5,34,0.00,,,0.00,542.92,VWS V14.01,2013-10-18 17:16:00,
2013-10-18 13:17:00,59.1,29.0,29.86,SW,230,9.9,14.5,32,0.00,,,0.00,542.55,VWS V14.01,2013-10-18 17:17:00,
2013-10-18 13:18:00,58.6,28.3,29.86,WSW,251,8.5,14.5,31,0.00,,,0.00,540.35,VWS V14.01,2013-10-18 17:18:00,
2013-10-18 13:21:00,59.0,29.7,29.86,SW,233,8.8,14.5,33,0.00,,,0.00,539.74,VWS V14.01,2013-10-18 17:21:00,
2013-10-18 13:22:00,59.5,31.2,29.86,SW,223,12.3,14.5,34,0.00,,,0.00,541.21,VWS V14.01,2013-10-18 17:22:00,
2013-10-18 13:23:00,60.3,32.8,29.86,SSW,212,9.3,14.5,35,0.00,,,0.00,489.13,VWS V14.01,2013-10-18 17:23:00,
2013-10-18 13:26:00,59.3,29.6,29.85,West,275,8.8,14.5,32,0.00,,,0.00,544.57,VWS V14.01,2013-10-18 17:26:00,
2013-10-18 13:28:00,58.8,28.5,29.84,WSW,240,12.4,14.5,31,0.00,,,0.00,539.19,VWS V14.01,2013-10-18 17:28:00,
2013-10-18 13:30:00,59.2,29.4,29.85,SW,221,12.6,14.5,32,0.00,,,0.00,541.94,VWS V14.01,2013-10-18 17:30:00,
2013-10-18 13:33:00,59.9,30.8,29.85,WSW,243,9.3,14.5,33,0.00,,,0.00,544.99,VWS V14.01,2013-10-18 17:33:00,
2013-10-18 13:34:00,59.9,30.5,29.85,SW,236,11.2,14.5,33,0.00,,,0.00,544.38,VWS V14.01,2013-10-18 17:34:00,
2013-10-18 13:35:00,59.0,28.4,29.85,WSW,253,10.2,14.5,31,0.00,,,0.00,542.43,VWS V14.01,2013-10-18 17:35:00,
2013-10-18 13:36:00,58.5,28.5,29.85,WSW,249,12.1,14.5,32,0.00,,,0.00,540.72,VWS V14.01,2013-10-18 17:36:00,
2013-10-18 13:40:00,60.2,30.9,29.85,SW,215,7.1,14.5,33,0.00,,,0.00,542.19,VWS V14.01,2013-10-18 17:40:00,
2013-10-18 13:41:00,61.1,32.6,29.85,WSW,239,11.1,14.5,34,0.00,,,0.00,541.94,VWS V14.01,2013-10-18 17:41:00,
2013-10-18 13:42:00,59.7,28.9,29.85,WSW,249,14.3,14.5,31,0.00,,,0.00,540.72,VWS V14.01,2013-10-18 17:42:00,
2013-10-18 13:45:00,59.2,27.8,29.84,West,269,7.1,14.5,30,0.00,,,0.00,542.25,VWS V14.01,2013-10-18 17:45:00,
2013-10-18 13:46:00,60.0,28.7,29.85,WSW,244,10.2,14.5,30,0.00,,,0.00,544.38,VWS V14.01,2013-10-18 17:46:00,
2013-10-18 13:47:00,61.3,31.8,29.86,SW,218,9.2,14.5,33,0.00,,,0.00,544.08,VWS V14.01,2013-10-18 17:47:00,
2013-10-18 13:48:00,61.1,30.7,29.85,WSW,237,14.5,14.5,32,0.00,,,0.00,543.90,VWS V14.01,2013-10-18 17:48:00,
2013-10-18 13:51:00,60.1,29.0,29.84,SW,236,7.3,14.5,31,0.00,,,0.00,543.90,VWS V14.01,2013-10-18 17:51:00,
2013-10-18 13:52:00,59.6,27.4,29.84,SW,230,12.3,14.5,29,0.00,,,0.00,543.65,VWS V14.01,2013-10-18 17:52:00,
2013-10-18 13:53:00,60.7,29.7,29.84,SSW,212,11.2,14.5,31,0.00,,,0.00,541.70,VWS V14.01,2013-10-18 17:53:00,
2013-10-18 13:54:00,60.3,27.9,29.84,SW,215,11.9,14.5,29,0.00,,,0.00,541.94,VWS V14.01,2013-10-18 17:54:00,
2013-10-18 13:58:00,60.0,27.8,29.85,WNW,297,9.2,15.2,29,0.00,,,0.00,543.16,VWS V14.01,2013-10-18 17:58:00,
2013-10-18 13:59:00,60.0,27.8,29.85,WNW,297,9.2,15.2,29,0.00,,,0.00,543.16,VWS V14.01,2013-10-18 17:59:00,
2013-10-18 14:00:00,60.4,28.5,29.84,WSW,239,15.5,15.5,30,0.00,,,0.00,542.92,VWS V14.01,2013-10-18 18:00:00,
2013-10-18 14:01:00,59.8,26.6,29.84,WSW,248,11.2,15.5,28,0.00,,,0.00,544.69,VWS V14.01,2013-10-18 18:01:00,
2013-10-18 14:04:00,60.6,27.3,29.84,WSW,245,10.4,13.6,28,0.00,,,0.00,543.04,VWS V14.01,2013-10-18 18:04:00,
2013-10-18 14:05:00,61.0,28.8,29.84,WSW,248,12.4,12.4,29,0.00,,,0.00,541.39,VWS V14.01,2013-10-18 18:05:00,
2013-10-18 14:06:00,60.4,25.5,29.84,WSW,239,17.4,17.4,26,0.00,,,0.00,542.31,VWS V14.01,2013-10-18 18:06:00,
2013-10-18 14:07:00,60.7,28.0,29.85,SW,230,12.9,12.9,29,0.00,,,0.00,542.92,VWS V14.01,2013-10-18 18:07:00,
2013-10-18 14:10:00,60.3,27.1,29.85,WSW,240,11.1,11.4,28,0.00,,,0.00,542.55,VWS V14.01,2013-10-18 18:10:00,
2013-10-18 14:11:00,60.3,27.1,29.85,WSW,240,11.1,11.4,28,0.00,,,0.00,542.55,VWS V14.01,2013-10-18 18:11:00,
2013-10-18 14:12:00,61.1,28.7,29.84,SW,221,9.7,9.9,29,0.00,,,0.00,539.26,VWS V14.01,2013-10-18 18:12:00,
2013-10-18 14:16:00,60.0,28.6,29.84,WSW,251,11.1,14.1,30,0.00,,,0.00,547.07,VWS V14.01,2013-10-18 18:16:00,
2013-10-18 14:17:00,61.3,29.3,29.84,West,262,13.6,14.1,30,0.00,,,0.00,549.21,VWS V14.01,2013-10-18 18:17:00,
2013-10-18 14:19:00,60.5,26.5,29.84,WSW,239,14.0,14.0,27,0.00,,,0.00,549.51,VWS V14.01,2013-10-18 18:19:00,
2013-10-18 14:22:00,61.1,27.8,29.84,West,260,13.1,13.1,28,0.00,,,0.00,361.17,VWS V14.01,2013-10-18 18:22:00,
2013-10-18 14:23:00,59.9,28.0,29.83,West,262,9.3,13.1,29,0.00,,,0.00,588.34,VWS V14.01,2013-10-18 18:23:00,
2013-10-18 14:26:00,60.6,26.2,29.86,SSW,212,16.9,16.9,27,0.00,,,0.00,588.34,VWS V14.01,2013-10-18 18:26:00,
2013-10-18 14:27:00,61.5,29.5,29.83,WSW,251,9.3,10.5,30,0.00,,,0.00,563.92,VWS V14.01,2013-10-18 18:27:00,
2013-10-18 14:28:00,61.4,28.6,29.82,West,263,11.1,11.1,29,0.00,,,0.00,563.92,VWS V14.01,2013-10-18 18:28:00,
2013-10-18 14:32:00,61.1,28.2,29.84,WSW,249,13.8,13.8,29,0.00,,,0.00,568.25,VWS V14.01,2013-10-18 18:32:00,
2013-10-18 14:33:00,61.7,29.6,29.84,SW,233,11.1,13.8,29,0.00,,,0.00,558.49,VWS V14.01,2013-10-18 18:33:00,
2013-10-18 14:34:00,62.2,30.5,29.84,WSW,237,9.2,11.1,30,0.00,,,0.00,551.40,VWS V14.01,2013-10-18 18:34:00,
2013-10-18 14:37:00,61.4,25.5,29.83,SW,236,11.6,15.2,25,0.00,,,0.00,594.44,VWS V14.01,2013-10-18 18:37:00,
2013-10-18 14:38:00,61.9,27.0,29.83,SW,236,17.0,17.0,26,0.00,,,0.00,602.69,VWS V14.01,2013-10-18 18:38:00,
2013-10-18 14:39:00,62.2,27.6,29.83,SW,232,13.6,17.0,27,0.00,,,0.00,607.88,VWS V14.01,2013-10-18 18:39:00,
2013-10-18 14:41:00,61.8,27.8,29.83,WSW,257,12.4,15.5,27,0.00,,,0.00,607.14,VWS V14.01,2013-10-18 18:41:00,
2013-10-18 14:44:00,61.2,25.6,29.83,SW,235,16.2,16.2,25,0.00,,,0.00,578.57,VWS V14.01,2013-10-18 18:44:00,
2013-10-18 14:45:00,62.4,27.8,29.83,WSW,258,16.9,16.9,27,0.00,,,0.00,584.07,VWS V14.01,2013-10-18 18:45:00,
2013-10-18 14:47:00,60.3,28.1,29.84,WSW,251,8.7,14.3,29,0.00,,,0.00,129.24,VWS V14.01,2013-10-18 18:47:00,
2013-10-18 14:49:00,60.5,25.8,29.83,West,264,13.6,13.6,26,0.00,,,0.00,582.23,VWS V14.01,2013-10-18 18:49:00,
2013-10-18 14:50:00,60.2,25.4,29.83,WSW,252,13.1,13.6,26,0.00,,,0.00,156.11,VWS V14.01,2013-10-18 18:50:00,
2013-10-18 14:51:00,60.2,25.9,29.84,WSW,257,13.1,13.1,27,0.00,,,0.00,207.63,VWS V14.01,2013-10-18 18:51:00,
2013-10-18 14:53:00,59.5,26.6,29.83,WSW,251,8.7,10.0,28,0.00,,,0.00,141.45,VWS V14.01,2013-10-18 18:53:00,
2013-10-18 14:55:00,60.2,26.5,29.84,West,260,13.1,13.1,27,0.00,,,0.00,576.25,VWS V14.01,2013-10-18 18:55:00,
2013-10-18 14:56:00,59.7,26.0,29.84,West,269,11.6,12.8,27,0.00,,,0.00,131.62,VWS V14.01,2013-10-18 18:56:00,
2013-10-18 14:57:00,59.2,25.5,29.84,SW,235,11.9,11.9,27,0.00,,,0.00,132.17,VWS V14.01,2013-10-18 18:57:00,
2013-10-18 15:00:00,60.5,21.6,29.83,West,267,18.6,18.6,22,0.00,,,0.00,563.98,VWS V14.01,2013-10-18 19:00:00,
2013-10-18 15:01:00,61.0,26.6,29.84,WNW,297,15.3,18.6,27,0.00,,,0.00,573.69,VWS V14.01,2013-10-18 19:01:00,
2013-10-18 15:02:00,60.5,25.2,29.83,West,263,13.8,15.3,26,0.00,,,0.00,573.38,VWS V14.01,2013-10-18 19:02:00,
2013-10-18 15:05:00,61.1,29.4,29.84,WSW,243,11.2,11.9,30,0.00,,,0.00,537.36,VWS V14.01,2013-10-18 19:05:00,
2013-10-18 15:06:00,60.2,27.5,29.84,West,269,9.3,9.3,29,0.00,,,0.00,178.57,VWS V14.01,2013-10-18 19:06:00,
2013-10-18 15:08:00,60.2,25.8,29.83,WNW,286,12.1,12.1,27,0.00,,,0.00,604.76,VWS V14.01,2013-10-18 19:08:00,
2013-10-18 15:10:00,61.4,28.3,29.84,WNW,299,10.0,11.7,28,0.00,,,0.00,442.19,VWS V14.01,2013-10-18 19:10:00,
2013-10-18 15:11:00,60.1,25.0,29.84,West,279,13.3,13.3,26,0.00,,,0.00,185.41,VWS V14.01,2013-10-18 19:11:00,
2013-10-18 15:12:00,59.7,26.5,29.83,West,265,10.7,10.7,28,0.00,,,0.00,190.29,VWS V14.01,2013-10-18 19:12:00,
2013-10-18 15:13:00,60.6,27.2,29.83,WSW,243,12.4,12.4,28,0.00,,,0.00,510.81,VWS V14.01,2013-10-18 19:13:00,
2013-10-18 15:14:00,60.5,25.2,29.83,WSW,255,13.3,13.3,26,0.00,,,0.00,546.83,VWS V14.01,2013-10-18 19:14:00,
2013-10-18 15:15:00,60.7,25.3,29.82,WSW,253,9.7,14.1,26,0.00,,,0.00,590.48,VWS V14.01,2013-10-18 19:15:00,
2013-10-18 15:18:00,61.0,25.7,29.83,WSW,243,14.8,14.8,26,0.00,,,0.00,566.61,VWS V14.01,2013-10-18 19:18:00,
2013-10-18 15:19:00,61.0,25.7,29.83,West,265,12.9,12.9,26,0.00,,,0.00,592.37,VWS V14.01,2013-10-18 19:19:00,
2013-10-18 15:20:00,61.2,24.4,29.83,WSW,239,15.3,15.3,24,0.00,,,0.00,601.04,VWS V14.01,2013-10-18 19:20:00,
2013-10-18 15:21:00,61.2,24.6,29.83,WSW,246,15.7,15.7,24,0.00,,,0.00,602.08,VWS V14.01,2013-10-18 19:21:00,
2013-10-18 15:23:00,61.7,26.1,29.83,West,264,11.4,17.0,26,0.00,,,0.00,571.25,VWS V14.01,2013-10-18 19:23:00,
2013-10-18 15:24:00,62.4,28.3,29.84,WSW,257,12.3,17.0,27,0.00,,,0.00,568.80,VWS V14.01,2013-10-18 19:24:00,
2013-10-18 15:25:00,61.1,24.5,29.84,West,263,15.5,15.5,24,0.00,,,0.00,566.67,VWS V14.01,2013-10-18 19:25:00,
2013-10-18 15:26:00,62.1,27.6,29.83,WSW,240,11.1,17.9,27,0.00,,,0.00,555.92,VWS V14.01,2013-10-18 19:26:00,
2013-10-18 15:29:00,61.9,27.4,29.83,West,272,12.8,15.7,27,0.00,,,0.00,546.52,VWS V14.01,2013-10-18 19:29:00,
2013-10-18 15:30:00,60.7,25.7,29.83,West,270,14.1,15.7,26,0.00,,,0.00,177.59,VWS V14.01,2013-10-18 19:30:00,
2013-10-18 15:31:00,59.8,26.5,29.83,WNW,290,9.5,9.5,28,0.00,,,0.00,187.12,VWS V14.01,2013-10-18 19:31:00,
2013-10-18 15:32:00,60.0,26.7,29.84,WNW,287,7.8,7.8,28,0.00,,,0.00,190.29,VWS V14.01,2013-10-18 19:32:00,
2013-10-18 15:33:00,60.8,30.0,29.83,WSW,251,8.1,8.7,31,0.00,,,0.00,204.33,VWS V14.01,2013-10-18 19:33:00,
2013-10-18 15:35:00,59.9,24.5,29.83,West,279,13.8,13.8,26,0.00,,,0.00,212.76,VWS V14.01,2013-10-18 19:35:00,
2013-10-18 15:37:00,59.5,25.7,29.85,WSW,255,10.5,16.0,27,0.00,,,0.00,178.69,VWS V14.01,2013-10-18 19:37:00,
2013-10-18 15:38:00,59.3,26.5,29.83,WNW,290,11.2,14.1,28,0.00,,,0.00,172.71,VWS V14.01,2013-10-18 19:38:00,
2013-10-18 15:39:00,59.2,27.0,29.84,West,264,10.7,12.9,29,0.00,,,0.00,204.95,VWS V14.01,2013-10-18 19:39:00,
2013-10-18 15:43:00,60.3,26.4,29.83,WSW,243,12.9,12.9,27,0.00,,,0.00,458.91,VWS V14.01,2013-10-18 19:43:00,
2013-10-18 15:44:00,59.7,25.7,29.84,West,277,12.6,13.8,27,0.00,,,0.00,157.08,VWS V14.01,2013-10-18 19:44:00,
2013-10-18 15:45:00,59.6,26.5,29.84,West,262,11.2,12.6,28,0.00,,,0.00,148.84,VWS V14.01,2013-10-18 19:45:00,
2013-10-18 15:46:00,59.6,26.6,29.83,WSW,238,9.2,9.3,28,0.00,,,0.00,131.69,VWS V14.01,2013-10-18 19:46:00,
2013-10-18 15:48:00,59.2,27.0,29.83,SW,234,9.7,9.9,29,0.00,,,0.00,139.01,VWS V14.01,2013-10-18 19:48:00,
2013-10-18 15:49:00,59.0,27.5,29.84,WSW,248,9.3,12.4,30,0.00,,,0.00,148.78,VWS V14.01,2013-10-18 19:49:00,
2013-10-18 15:50:00,59.7,26.3,29.83,West,265,14.6,14.6,28,0.00,,,0.00,489.68,VWS V14.01,2013-10-18 19:50:00,
2013-10-18 15:51:00,59.9,26.3,29.83,West,263,17.7,17.7,28,0.00,,,0.00,493.10,VWS V14.01,2013-10-18 19:51:00,
2013-10-18 15:53:00,60.2,27.4,29.84,WSW,257,14.1,14.1,29,0.00,,,0.00,178.69,VWS V14.01,2013-10-18 19:53:00,
2013-10-18 15:54:00,59.4,26.7,29.83,West,266,12.3,12.9,28,0.00,,,0.00,171.00,VWS V14.01,2013-10-18 19:54:00,
2013-10-18 15:56:00,59.3,28.4,29.84,West,272,11.4,11.4,31,0.00,,,0.00,423.57,VWS V14.01,2013-10-18 19:56:00,
2013-10-18 15:57:00,60.0,27.4,29.87,WSW,254,12.8,12.8,29,0.00,,,0.00,480.89,VWS V14.01,2013-10-18 19:57:00,
2013-10-18 15:59:00,59.9,27.5,29.83,West,270,10.5,12.9,29,0.00,,,0.00,175.89,VWS V14.01,2013-10-18 19:59:00,
2013-10-18 16:00:00,59.6,27.8,29.83,WSW,256,11.1,11.1,29,0.00,,,0.00,165.57,VWS V14.01,2013-10-18 20:00:00,
2013-10-18 16:01:00,59.4,26.1,29.83,WSW,253,12.1,12.1,28,0.00,,,0.00,144.87,VWS V14.01,2013-10-18 20:01:00,
2013-10-18 16:02:00,59.3,27.2,29.83,West,275,8.7,12.1,29,0.00,,,0.00,133.52,VWS V14.01,2013-10-18 20:02:00,
2013-10-18 16:04:00,58.8,28.9,29.83,West,273,6.8,6.8,32,0.00,,,0.00,124.66,VWS V14.01,2013-10-18 20:04:00,
2013-10-18 16:07:00,60.6,26.7,29.84,WSW,256,13.8,17.0,27,0.00,,,0.00,451.28,VWS V14.01,2013-10-18 20:07:00,
2013-10-18 16:08:00,61.0,27.7,29.83,WSW,250,10.7,13.8,28,0.00,,,0.00,453.54,VWS V14.01,2013-10-18 20:08:00,
2013-10-18 16:09:00,60.7,27.0,29.83,West,261,10.4,10.7,27,0.00,,,0.00,451.59,VWS V14.01,2013-10-18 20:09:00,
2013-10-18 16:10:00,60.9,26.6,29.83,WSW,247,14.8,14.8,27,0.00,,,0.00,444.02,VWS V14.01,2013-10-18 20:10:00,
2013-10-18 16:11:00,61.2,27.5,29.84,WSW,238,10.4,10.4,28,0.00,,,0.00,348.78,VWS V14.01,2013-10-18 20:11:00,
2013-10-18 16:13:00,60.0,26.0,29.83,West,277,13.1,13.1,27,0.00,,,0.00,319.72,VWS V14.01,2013-10-18 20:13:00,
2013-10-18 16:14:00,60.0,26.0,29.84,West,269,13.6,15.5,27,0.00,,,0.00,207.08,VWS V14.01,2013-10-18 20:14:00,
2013-10-18 16:15:00,60.1,28.6,29.83,West,273,10.2,11.4,30,0.00,,,0.00,413.19,VWS V14.01,2013-10-18 20:15:00,
2013-10-18 16:17:00,59.8,27.7,29.83,West,270,9.2,11.9,29,0.00,,,0.00,156.11,VWS V14.01,2013-10-18 20:17:00,
2013-10-18 16:18:00,59.2,28.2,29.83,WNW,286,11.7,11.7,30,0.00,,,0.00,143.59,VWS V14.01,2013-10-18 20:18:00,
2013-10-18 16:20:00,58.9,27.7,29.83,West,277,9.5,9.5,30,0.00,,,0.00,155.62,VWS V14.01,2013-10-18 20:20:00,
2013-10-18 16:21:00,59.0,28.4,29.83,WNW,288,9.5,10.4,31,0.00,,,0.00,149.02,VWS V14.01,2013-10-18 20:21:00,
2013-10-18 16:22:00,58.9,28.5,29.83,WNW,290,9.7,9.7,31,0.00,,,0.00,148.78,VWS V14.01,2013-10-18 20:22:00,
2013-10-18 16:23:00,59.2,28.5,29.83,West,270,12.4,12.4,31,0.00,,,0.00,146.34,VWS V14.01,2013-10-18 20:23:00,
2013-10-18 16:24:00,59.2,28.5,29.83,West,270,12.4,12.4,31,0.00,,,0.00,146.34,VWS V14.01,2013-10-18 20:24:00,
2013-10-18 16:25:00,59.1,28.8,29.83,WNW,297,9.7,9.7,31,0.00,,,0.00,148.78,VWS V14.01,2013-10-18 20:25:00,
2013-10-18 16:26:00,59.8,30.7,29.82,West,261,7.3,10.2,33,0.00,,,0.00,361.23,VWS V14.01,2013-10-18 20:26:00,
2013-10-18 16:27:00,59.8,30.7,29.82,West,261,7.3,10.2,33,0.00,,,0.00,361.23,VWS V14.01,2013-10-18 20:27:00,
2013-10-18 16:28:00,59.8,29.0,29.84,West,281,9.9,9.9,31,0.00,,,0.00,417.40,VWS V14.01,2013-10-18 20:28:00,
2013-10-18 16:30:00,60.2,29.5,29.83,West,271,8.7,8.7,31,0.00,,,0.00,407.63,VWS V14.01,2013-10-18 20:30:00,
2013-10-18 16:31:00,60.4,29.2,29.83,WNW,289,12.6,12.6,30,0.00,,,0.00,411.23,VWS V14.01,2013-10-18 20:31:00,
2013-10-18 16:32:00,60.6,29.7,29.83,NW,304,12.8,12.8,31,0.00,,,0.00,410.07,VWS V14.01,2013-10-18 20:32:00,
2013-10-18 16:33:00,59.7,28.0,29.82,WNW,287,14.5,14.5,30,0.00,,,0.00,164.90,VWS V14.01,2013-10-18 20:33:00,
2013-10-18 16:36:00,60.2,29.6,29.83,SW,218,10.4,10.4,31,0.00,,,0.00,126.80,VWS V14.01,2013-10-18 20:36:00,
2013-10-18 16:37:00,59.6,27.8,29.83,WSW,247,12.9,12.9,30,0.00,,,0.00,244.63,VWS V14.01,2013-10-18 20:37:00,
2013-10-18 16:38:00,59.8,27.5,29.82,WNW,283,14.8,14.8,29,0.00,,,0.00,348.72,VWS V14.01,2013-10-18 20:38:00,
2013-10-18 16:40:00,59.9,29.0,29.82,WNW,283,9.7,10.4,31,0.00,,,0.00,344.75,VWS V14.01,2013-10-18 20:40:00,
2013-10-18 16:41:00,60.0,28.7,29.82,WNW,282,10.7,10.7,30,0.00,,,0.00,324.79,VWS V14.01,2013-10-18 20:41:00,
2013-10-18 16:42:00,59.7,27.8,29.82,WNW,294,13.5,13.5,29,0.00,,,0.00,97.50,VWS V14.01,2013-10-18 20:42:00,
2013-10-18 16:43:00,59.3,27.1,29.81,West,273,13.3,15.8,29,0.00,,,0.00,285.78,VWS V14.01,2013-10-18 20:43:00,
2013-10-18 16:46:00,59.8,27.8,29.83,WSW,255,12.4,12.4,29,0.00,,,0.00,302.32,VWS V14.01,2013-10-18 20:46:00,
2013-10-18 16:48:00,59.6,28.9,29.83,West,259,10.5,10.5,31,0.00,,,0.00,302.63,VWS V14.01,2013-10-18 20:48:00,
2013-10-18 16:49:00,59.5,27.6,29.83,WSW,255,14.0,14.0,29,0.00,,,0.00,295.30,VWS V14.01,2013-10-18 20:49:00,
2013-10-18 16:50:00,59.3,26.2,29.83,WSW,254,14.1,14.1,28,0.00,,,0.00,110.13,VWS V14.01,2013-10-18 20:50:00,
2013-10-18 16:51:00,59.0,27.4,29.83,WSW,238,11.7,11.7,30,0.00,,,0.00,136.57,VWS V14.01,2013-10-18 20:51:00,
2013-10-18 16:53:00,59.3,27.5,29.83,West,272,12.8,12.8,29,0.00,,,0.00,121.92,VWS V14.01,2013-10-18 20:53:00,
2013-10-18 16:54:00,59.3,27.5,29.83,West,272,12.8,12.8,29,0.00,,,0.00,121.92,VWS V14.01,2013-10-18 20:54:00,
2013-10-18 16:55:00,58.7,27.2,29.83,West,272,14.3,14.3,30,0.00,,,0.00,136.26,VWS V14.01,2013-10-18 20:55:00,
2013-10-18 16:56:00,58.2,27.3,29.83,WSW,257,11.4,14.3,30,0.00,,,0.00,119.47,VWS V14.01,2013-10-18 20:56:00,
2013-10-18 16:58:00,58.7,27.9,29.84,West,268,11.9,11.9,31,0.00,,,0.00,230.83,VWS V14.01,2013-10-18 20:58:00,
2013-10-18 16:59:00,58.9,28.8,29.83,West,269,10.4,13.6,32,0.00,,,0.00,314.53,VWS V14.01,2013-10-18 20:59:00,
2013-10-18 17:01:00,59.6,28.3,29.83,WSW,255,12.1,12.1,30,0.00,,,0.00,321.92,VWS V14.01,2013-10-18 21:01:00,
2013-10-18 17:02:00,59.6,27.2,29.83,West,269,12.3,12.3,29,0.00,,,0.00,302.63,VWS V14.01,2013-10-18 21:02:00,
2013-10-18 17:05:00,59.6,27.6,29.85,West,259,11.7,11.7,29,0.00,,,0.00,273.02,VWS V14.01,2013-10-18 21:05:00,
2013-10-18 17:06:00,59.6,26.8,29.83,West,268,14.3,14.8,28,0.00,,,0.00,254.09,VWS V14.01,2013-10-18 21:06:00,
2013-10-18 17:07:00,59.5,27.4,29.83,West,274,11.4,14.3,29,0.00,,,0.00,236.45,VWS V14.01,2013-10-18 21:07:00,
2013-10-18 17:09:00,59.4,27.1,29.82,West,271,13.1,13.6,29,0.00,,,0.00,232.05,VWS V14.01,2013-10-18 21:09:00,
2013-10-18 17:10:00,59.8,28.5,29.83,WSW,251,9.3,9.3,30,0.00,,,0.00,224.79,VWS V14.01,2013-10-18 21:10:00,
2013-10-18 17:11:00,59.4,29.1,29.84,West,277,8.0,14.1,31,0.00,,,0.00,224.18,VWS V14.01,2013-10-18 21:11:00,
2013-10-18 17:12:00,59.6,28.0,29.84,West,265,9.7,10.4,30,0.00,,,0.00,219.60,VWS V14.01,2013-10-18 21:12:00,
2013-10-18 17:15:00,59.1,28.4,29.83,WSW,250,7.3,7.3,31,0.00,,,0.00,209.83,VWS V14.01,2013-10-18 21:15:00,
2013-10-18 17:16:00,59.0,29.3,29.86,WSW,241,7.1,7.1,32,0.00,,,0.00,197.62,VWS V14.01,2013-10-18 21:16:00,
2013-10-18 17:17:00,59.1,27.3,29.84,West,260,12.8,12.8,29,0.00,,,0.00,202.81,VWS V14.01,2013-10-18 21:17:00,
2013-10-18 17:18:00,59.2,27.2,29.83,West,274,13.5,13.5,29,0.00,,,0.00,201.53,VWS V14.01,2013-10-18 21:18:00,
2013-10-18 17:21:00,59.2,22.3,29.83,WSW,254,11.1,13.5,24,0.00,,,0.00,194.81,VWS V14.01,2013-10-18 21:21:00,
2013-10-18 17:22:00,59.2,28.0,29.83,West,267,10.2,11.1,30,0.00,,,0.00,189.01,VWS V14.01,2013-10-18 21:22:00,
2013-10-18 17:23:00,59.2,27.4,29.83,WSW,250,14.5,14.5,29,0.00,,,0.00,171.98,VWS V14.01,2013-10-18 21:23:00,
2013-10-18 17:26:00,58.5,27.5,29.83,WSW,239,12.8,12.8,30,0.00,,,0.00,172.10,VWS V14.01,2013-10-18 21:26:00,
2013-10-18 17:28:00,58.7,27.4,29.84,WSW,246,13.6,13.6,30,0.00,,,0.00,189.38,VWS V14.01,2013-10-18 21:28:00,
2013-10-18 17:30:00,59.1,26.7,29.84,West,278,13.5,13.5,29,0.00,,,0.00,63.31,VWS V14.01,2013-10-18 21:30:00,
2013-10-18 17:31:00,58.1,27.1,29.83,WSW,249,10.7,13.5,30,0.00,,,0.00,60.87,VWS V14.01,2013-10-18 21:31:00,
2013-10-18 17:32:00,58.4,27.2,29.84,WSW,247,12.8,13.1,30,0.00,,,0.00,102.38,VWS V14.01,2013-10-18 21:32:00,
2013-10-18 17:33:00,58.2,26.9,29.84,WSW,240,13.5,13.5,30,0.00,,,0.00,75.52,VWS V14.01,2013-10-18 21:33:00,
2013-10-18 17:34:00,58.5,27.3,29.84,SW,235,15.2,15.2,30,0.00,,,0.00,58.42,VWS V14.01,2013-10-18 21:34:00,
2013-10-18 17:35:00,58.0,23.9,29.83,WSW,239,12.8,13.6,27,0.00,,,0.00,59.89,VWS V14.01,2013-10-18 21:35:00,
2013-10-18 17:36:00,58.1,28.2,29.84,WSW,256,9.2,9.2,32,0.00,,,0.00,163.43,VWS V14.01,2013-10-18 21:36:00,
2013-10-18 17:37:00,58.5,28.7,29.83,West,259,11.4,11.4,32,0.00,,,0.00,170.76,VWS V14.01,2013-10-18 21:37:00,
2013-10-18 17:38:00,58.4,27.1,29.83,West,275,10.2,10.9,30,0.00,,,0.00,171.49,VWS V14.01,2013-10-18 21:38:00,
2013-10-18 17:40:00,58.1,28.5,29.85,West,264,10.4,12.1,32,0.00,,,0.00,69.66,VWS V14.01,2013-10-18 21:40:00,
2013-10-18 17:41:00,57.6,28.5,29.84,WNW,285,12.6,12.6,33,0.00,,,0.00,68.44,VWS V14.01,2013-10-18 21:41:00,
2013-10-18 17:43:00,57.8,29.2,29.84,WSW,256,9.7,9.7,33,0.00,,,0.00,77.96,VWS V14.01,2013-10-18 21:43:00,
2013-10-18 17:44:00,58.1,29.6,29.83,WSW,249,8.3,9.7,34,0.00,,,0.00,165.87,VWS V14.01,2013-10-18 21:44:00,
2013-10-18 17:45:00,58.2,29.3,29.84,West,263,10.4,10.4,33,0.00,,,0.00,120.09,VWS V14.01,2013-10-18 21:45:00,
2013-10-18 17:46:00,58.1,28.7,29.83,WNW,284,10.2,11.1,32,0.00,,,0.00,58.42,VWS V14.01,2013-10-18 21:46:00,
2013-10-18 17:47:00,58.1,28.7,29.83,WNW,284,10.2,10.2,32,0.00,,,0.00,58.42,VWS V14.01,2013-10-18 21:47:00,
2013-10-18 17:48:00,57.4,28.8,29.84,West,259,11.2,11.2,33,0.00,,,0.00,68.19,VWS V14.01,2013-10-18 21:48:00,
2013-10-18 17:49:00,57.7,29.2,29.84,West,266,9.5,12.3,34,0.00,,,0.00,134.74,VWS V14.01,2013-10-18 21:49:00,
2013-10-18 17:50:00,58.3,29.0,29.84,West,273,11.4,12.8,33,0.00,,,0.00,134.13,VWS V14.01,2013-10-18 21:50:00,
2013-10-18 17:51:00,58.1,28.5,29.84,West,278,10.5,12.9,32,0.00,,,0.00,132.17,VWS V14.01,2013-10-18 21:51:00,
2013-10-18 17:52:00,58.2,29.6,29.85,West,275,8.5,9.0,33,0.00,,,0.00,126.80,VWS V14.01,2013-10-18 21:52:00,
2013-10-18 17:54:00,57.5,29.2,29.85,WSW,251,7.8,8.5,34,0.00,,,0.00,121.43,VWS V14.01,2013-10-18 21:54:00,
2013-10-18 17:56:00,57.2,29.2,29.83,West,276,6.9,9.9,34,0.00,,,0.00,112.39,VWS V14.01,2013-10-18 21:56:00,
2013-10-18 17:57:00,57.7,29.2,29.83,West,270,8.8,9.9,34,0.00,,,0.00,111.90,VWS V14.01,2013-10-18 21:57:00,
2013-10-18 17:58:00,57.8,29.0,29.84,West,261,11.7,11.7,33,0.00,,,0.00,112.09,VWS V14.01,2013-10-18 21:58:00,
2013-10-18 17:59:00,58.0,28.4,29.84,West,259,10.7,10.7,32,0.00,,,0.00,112.15,VWS V14.01,2013-10-18 21:59:00,
2013-10-18 18:00:00,57.1,28.9,29.85,NW,325,8.7,10.7,34,0.00,,,0.00,112.03,VWS V14.01,2013-10-18 22:00:00,
2013-10-18 18:02:00,57.1,29.4,29.84,WNW,296,7.1,11.9,35,0.00,,,0.00,99.57,VWS V14.01,2013-10-18 22:02:00,
2013-10-18 18:03:00,57.1,29.1,29.85,West,281,9.5,9.5,34,0.00,,,0.00,95.30,VWS V14.01,2013-10-18 22:03:00,
2013-10-18 18:04:00,57.1,29.4,29.84,West,271,8.5,9.5,35,0.00,,,0.00,88.95,VWS V14.01,2013-10-18 22:04:00,
2013-10-18 18:05:00,57.4,29.8,29.85,WSW,255,7.6,8.5,35,0.00,,,0.00,86.02,VWS V14.01,2013-10-18 22:05:00,
2013-10-18 18:06:00,57.9,25.8,29.85,West,265,12.1,12.1,29,0.00,,,0.00,65.75,VWS V14.01,2013-10-18 22:06:00,
2013-10-18 18:08:00,56.7,29.0,29.85,West,273,8.7,8.7,34,0.00,,,0.00,78.21,VWS V14.01,2013-10-18 22:08:00,
2013-10-18 18:09:00,57.2,29.2,29.85,WSW,242,11.7,11.7,34,0.00,,,0.00,72.77,VWS V14.01,2013-10-18 22:09:00,
2013-10-18 18:11:00,57.5,29.0,29.84,West,274,12.8,12.8,33,0.00,,,0.00,29.37,VWS V14.01,2013-10-18 22:11:00,
2013-10-18 18:12:00,56.7,28.7,29.84,West,262,9.9,12.8,34,0.00,,,0.00,29.12,VWS V14.01,2013-10-18 22:12:00,
2013-10-18 18:15:00,57.5,30.0,29.84,WNW,283,12.9,12.9,35,0.00,,,0.00,29.12,VWS V14.01,2013-10-18 22:15:00,
2013-10-18 18:17:00,56.3,29.4,29.85,WSW,257,10.7,10.9,36,0.00,,,0.00,26.43,VWS V14.01,2013-10-18 22:17:00,
2013-10-18 18:18:00,56.1,29.5,29.87,West,267,10.0,10.9,36,0.00,,,0.00,29.12,VWS V14.01,2013-10-18 22:18:00,
2013-10-18 18:19:00,55.7,29.3,29.85,WNW,283,8.5,10.0,36,0.00,,,0.00,37.06,VWS V14.01,2013-10-18 22:19:00,
2013-10-18 18:20:00,55.6,29.7,29.85,West,270,7.8,8.5,37,0.00,,,0.00,44.08,VWS V14.01,2013-10-18 22:20:00,
2013-10-18 18:22:00,55.8,29.5,29.85,West,276,9.3,9.3,36,0.00,,,0.00,45.30,VWS V14.01,2013-10-18 22:22:00,
2013-10-18 18:23:00,55.5,29.9,29.85,West,268,7.3,9.3,37,0.00,,,0.00,41.03,VWS V14.01,2013-10-18 22:23:00,
2013-10-18 18:24:00,55.7,30.1,29.88,West,263,9.9,9.9,37,0.00,,,0.00,41.82,VWS V14.01,2013-10-18 22:24:00,
2013-10-18 18:26:00,55.9,29.9,29.85,West,263,10.2,10.2,37,0.00,,,0.00,38.58,VWS V14.01,2013-10-18 22:26:00,
2013-10-18 18:29:00,55.4,30.1,29.85,West,260,8.3,10.0,38,0.00,,,0.00,23.99,VWS V14.01,2013-10-18 22:29:00,
2013-10-18 18:30:00,55.2,30.3,29.85,West,269,7.5,7.5,38,0.00,,,0.00,21.79,VWS V14.01,2013-10-18 22:30:00,
2013-10-18 18:32:00,55.3,31.1,29.85,WSW,246,6.1,6.8,40,0.00,,,0.00,26.68,VWS V14.01,2013-10-18 22:32:00,
2013-10-18 18:34:00,54.6,30.9,29.86,West,274,6.9,6.9,40,0.00,,,0.00,22.04,VWS V14.01,2013-10-18 22:34:00,
2013-10-18 18:35:00,55.3,31.5,29.86,West,274,7.8,7.8,40,0.00,,,0.00,22.10,VWS V14.01,2013-10-18 22:35:00,
2013-10-18 18:36:00,53.8,30.5,29.85,West,267,6.1,7.8,41,0.00,,,0.00,20.82,VWS V14.01,2013-10-18 22:36:00,
2013-10-18 18:39:00,53.9,31.2,29.85,West,271,6.4,6.4,42,0.00,,,0.00,16.61,VWS V14.01,2013-10-18 22:39:00,
2013-10-18 18:40:00,54.0,31.5,29.86,West,280,6.8,6.8,42,0.00,,,0.00,15.87,VWS V14.01,2013-10-18 22:40:00,
2013-10-18 18:41:00,54.1,31.6,29.86,WNW,284,6.8,8.0,42,0.00,,,0.00,10.81,VWS V14.01,2013-10-18 22:41:00,
2013-10-18 18:44:00,53.8,31.4,29.86,NW,306,8.0,10.5,42,0.00,,,0.00,9.83,VWS V14.01,2013-10-18 22:44:00,
2013-10-18 18:45:00,55.4,32.4,29.86,West,279,11.4,11.4,41,0.00,,,0.00,9.83,VWS V14.01,2013-10-18 22:45:00,
2013-10-18 18:46:00,55.0,32.4,29.86,West,280,8.0,8.0,42,0.00,,,0.00,8.85,VWS V14.01,2013-10-18 22:46:00,
2013-10-18 18:47:00,54.6,32.2,29.86,WNW,283,9.9,9.9,43,0.00,,,0.00,6.84,VWS V14.01,2013-10-18 22:47:00,
2013-10-18 18:50:00,54.2,32.5,29.86,WNW,284,6.8,6.8,44,0.00,,,0.00,4.95,VWS V14.01,2013-10-18 22:50:00,
2013-10-18 18:51:00,54.0,32.5,29.87,West,281,7.3,7.3,44,0.00,,,0.00,4.40,VWS V14.01,2013-10-18 22:51:00,
2013-10-18 18:52:00,53.2,32.2,29.87,West,275,5.9,5.9,45,0.00,,,0.00,3.97,VWS V14.01,2013-10-18 22:52:00,
2013-10-18 18:54:00,52.8,32.6,29.87,WNW,295,5.7,5.9,46,0.00,,,0.00,2.87,VWS V14.01,2013-10-18 22:54:00,
2013-10-18 18:56:00,52.6,32.9,29.86,WNW,284,5.6,5.7,47,0.00,,,0.00,2.56,VWS V14.01,2013-10-18 22:56:00,
2013-10-18 18:57:00,53.0,33.3,29.86,WNW,288,6.3,6.3,47,0.00,,,0.00,1.95,VWS V14.01,2013-10-18 22:57:00,
2013-10-18 18:58:00,52.6,33.1,29.87,WNW,292,5.7,6.3,47,0.00,,,0.00,2.01,VWS V14.01,2013-10-18 22:58:00,
2013-10-18 18:59:00,52.6,33.5,29.87,WNW,295,5.9,5.9,48,0.00,,,0.00,1.28,VWS V14.01,2013-10-18 22:59:00,
2013-10-18 19:01:00,52.4,33.6,29.87,WNW,296,4.9,4.9,48,0.00,,,0.00,0.98,VWS V14.01,2013-10-18 23:01:00,
2013-10-18 19:02:00,52.3,33.5,29.87,WNW,290,6.9,6.9,49,0.00,,,0.00,0.79,VWS V14.01,2013-10-18 23:02:00,
2013-10-18 19:04:00,51.6,32.9,29.87,West,271,5.9,6.8,49,0.00,,,0.00,0.00,VWS V14.01,2013-10-18 23:04:00,
2013-10-18 19:05:00,52.0,33.2,29.87,WNW,293,6.8,6.8,49,0.00,,,0.00,0.31,VWS V14.01,2013-10-18 23:05:00,
2013-10-18 19:08:00,52.4,33.5,29.87,WNW,284,8.7,8.7,48,0.00,,,0.00,0.00,VWS V14.01,2013-10-18 23:08:00,
2013-10-18 19:09:00,52.3,33.7,29.86,West,277,5.7,6.8,49,0.00,,,0.00,0.00,VWS V14.01,2013-10-18 23:09:00,
2013-10-18 19:10:00,52.7,34.1,29.86,West,276,5.9,6.8,49,0.00,,,0.00,0.00,VWS V14.01,2013-10-18 23:10:00,
2013-10-18 19:11:00,53.1,34.4,29.86,West,278,6.3,6.3,49,0.00,,,0.00,0.00,VWS V14.01,2013-10-18 23:11:00,
2013-10-18 19:13:00,52.0,33.8,29.87,West,281,5.4,6.1,50,0.00,,,0.00,0.00,VWS V14.01,2013-10-18 23:13:00,
2013-10-18 19:14:00,52.4,34.1,29.87,West,278,6.9,7.3,49,0.00,,,0.00,0.00,VWS V14.01,2013-10-18 23:14:00,
2013-10-18 19:15:00,53.1,34.3,29.87,WNW,303,10.7,10.7,49,0.00,,,0.00,0.00,VWS V14.01,2013-10-18 23:15:00,
2013-10-18 19:16:00,53.1,34.3,29.87,WNW,303,10.7,10.7,49,0.00,,,0.00,0.00,VWS V14.01,2013-10-18 23:16:00,
2013-10-18 19:17:00,52.1,33.2,29.87,WNW,300,5.7,10.0,48,0.00,,,0.00,0.12,VWS V14.01,2013-10-18 23:17:00,
2013-10-18 19:19:00,53.3,34.4,29.87,WNW,295,10.4,10.4,49,0.00,,,0.00,0.00,VWS V14.01,2013-10-18 23:19:00,
2013-10-18 19:20:00,53.2,34.3,29.88,WNW,296,9.2,10.4,48,0.00,,,0.00,0.00,VWS V14.01,2013-10-18 23:20:00,
2013-10-18 19:21:00,52.3,33.2,29.87,WNW,286,7.8,7.8,48,0.00,,,0.00,0.43,VWS V14.01,2013-10-18 23:21:00,
2013-10-18 19:22:00,52.4,33.5,29.88,NW,311,7.3,7.3,48,0.00,,,0.00,0.00,VWS V14.01,2013-10-18 23:22:00,
2013-10-18 19:23:00,52.8,34.3,29.88,WNW,284,8.3,8.3,49,0.00,,,0.00,0.00,VWS V14.01,2013-10-18 23:23:00,
2013-10-18 19:25:00,52.6,34.2,29.87,WNW,290,7.1,7.1,49,0.00,,,0.00,0.00,VWS V14.01,2013-10-18 23:25:00,
2013-10-18 19:26:00,52.7,34.8,29.87,WNW,284,6.3,7.3,50,0.00,,,0.00,0.00,VWS V14.01,2013-10-18 23:26:00,
2013-10-18 19:28:00,51.4,34.2,29.88,WNW,302,5.9,5.9,52,0.00,,,0.00,0.00,VWS V14.01,2013-10-18 23:28:00,
2013-10-18 19:29:00,51.4,34.2,29.88,WNW,302,5.9,5.9,52,0.00,,,0.00,0.00,VWS V14.01,2013-10-18 23:29:00,
2013-10-18 19:30:00,52.0,34.6,29.88,WNW,293,7.3,7.3,51,0.00,,,0.00,0.00,VWS V14.01,2013-10-18 23:30:00,
2013-10-18 19:33:00,51.6,34.6,29.88,WNW,286,8.3,8.3,52,0.00,,,0.00,0.00,VWS V14.01,2013-10-18 23:33:00,
2013-10-18 19:34:00,51.2,34.5,29.88,WNW,290,7.3,8.3,53,0.00,,,0.00,0.00,VWS V14.01,2013-10-18 23:34:00,
2013-10-18 19:37:00,51.6,34.8,29.87,WNW,301,8.3,12.8,52,0.00,,,0.00,0.00,VWS V14.01,2013-10-18 23:37:00,
2013-10-18 19:38:00,51.8,35.2,29.87,NW,313,9.9,10.5,53,0.00,,,0.00,0.00,VWS V14.01,2013-10-18 23:38:00,
2013-10-18 19:39:00,52.5,35.5,29.92,WNW,299,14.1,15.7,52,0.00,,,0.00,0.00,VWS V14.01,2013-10-18 23:39:00,
2013-10-18 19:40:00,51.7,35.0,29.89,NW,306,11.6,14.1,53,0.00,,,0.00,0.00,VWS V14.01,2013-10-18 23:40:00,
2013-10-18 19:43:00,51.8,35.7,29.89,NW,306,10.5,10.5,54,0.00,,,0.00,0.00,VWS V14.01,2013-10-18 23:43:00,
2013-10-18 19:44:00,50.8,34.9,29.89,NW,312,8.8,10.5,54,0.00,,,0.00,0.00,VWS V14.01,2013-10-18 23:44:00,
2013-10-18 19:45:00,50.8,34.9,29.89,NW,312,8.8,10.5,54,0.00,,,0.00,0.00,VWS V14.01,2013-10-18 23:45:00,
2013-10-18 19:47:00,50.8,34.9,29.89,NW,312,8.8,10.5,54,0.00,,,0.00,0.00,VWS V14.01,2013-10-18 23:47:00,
2013-10-18 19:48:00,50.8,36.0,29.89,WNW,286,13.1,14.3,57,0.00,,,0.00,0.00,VWS V14.01,2013-10-18 23:48:00,
2013-10-18 19:49:00,50.8,36.0,29.89,WNW,286,13.1,14.3,57,0.00,,,0.00,0.00,VWS V14.01,2013-10-18 23:49:00,
2013-10-18 19:50:00,50.6,36.1,29.89,West,275,10.0,12.8,57,0.00,,,0.00,0.12,VWS V14.01,2013-10-18 23:50:00,
2013-10-18 19:51:00,50.1,36.0,29.89,WNW,293,9.3,10.5,58,0.00,,,0.00,0.00,VWS V14.01,2013-10-18 23:51:00,
2013-10-18 19:53:00,49.9,35.9,29.90,West,271,10.9,11.6,58,0.00,,,0.00,0.00,VWS V14.01,2013-10-18 23:53:00,
2013-10-18 19:54:00,50.4,36.5,29.90,West,280,12.6,12.6,59,0.00,,,0.00,0.00,VWS V14.01,2013-10-18 23:54:00,
2013-10-18 19:55:00,50.0,36.1,29.90,WNW,288,14.0,14.0,59,0.00,,,0.00,0.00,VWS V14.01,2013-10-18 23:55:00,
2013-10-18 19:56:00,50.0,36.2,29.90,WNW,292,14.3,14.3,59,0.00,,,0.00,0.00,VWS V14.01,2013-10-18 23:56:00,
2013-10-18 19:57:00,49.9,36.1,29.90,WNW,298,13.8,14.3,59,0.00,,,0.00,0.43,VWS V14.01,2013-10-18 23:57:00,
2013-10-18 19:58:00,49.3,35.8,29.90,West,262,12.8,12.8,59,0.00,,,0.00,0.00,VWS V14.01,2013-10-18 23:58:00,
2013-10-18 19:59:00,49.5,36.2,29.90,WNW,290,16.5,16.5,60,0.00,,,0.00,0.00,VWS V14.01,2013-10-18 23:59:00,
2013-10-18 20:00:00,49.4,36.1,29.90,WNW,303,10.7,16.5,60,0.00,,,0.00,0.00,VWS V14.01,2013-10-19 00:00:00,
2013-10-18 20:01:00,49.6,36.5,29.91,WNW,285,13.3,13.3,61,0.00,,,0.00,0.00,VWS V14.01,2013-10-19 00:01:00,
2013-10-18 20:02:00,49.2,36.4,29.90,NW,317,13.1,14.8,61,0.00,,,0.00,0.00,VWS V14.01,2013-10-19 00:02:00,
2013-10-18 20:04:00,48.9,36.1,29.91,WNW,287,14.0,17.2,61,0.00,,,0.00,0.00,VWS V14.01,2013-10-19 00:04:00,
2013-10-18 20:05:00,49.2,36.4,29.90,WNW,291,17.0,17.0,61,0.00,,,0.00,0.00,VWS V14.01,2013-10-19 00:05:00,
2013-10-18 20:07:00,48.8,36.5,29.90,WNW,286,13.3,17.7,62,0.00,,,0.00,0.00,VWS V14.01,2013-10-19 00:07:00,
2013-10-18 20:08:00,48.5,36.2,29.90,WNW,293,14.8,14.8,62,0.00,,,0.00,0.00,VWS V14.01,2013-10-19 00:08:00,
2013-10-18 20:10:00,47.9,36.4,29.90,NNW,335,13.8,13.8,64,0.00,,,0.00,0.00,VWS V14.01,2013-10-19 00:10:00,
2013-10-18 20:12:00,47.9,36.9,29.91,NW,318,12.1,12.1,65,0.00,,,0.00,0.73,VWS V14.01,2013-10-19 00:12:00,
2013-10-18 20:13:00,48.0,37.2,29.90,WNW,285,13.1,13.1,66,0.00,,,0.00,0.43,VWS V14.01,2013-10-19 00:13:00,
2013-10-18 20:14:00,47.7,37.1,29.90,NW,312,10.7,10.7,66,0.00,,,0.00,0.00,VWS V14.01,2013-10-19 00:14:00,
2013-10-18 20:15:00,47.6,37.1,29.91,WNW,302,9.2,10.7,67,0.00,,,0.00,0.00,VWS V14.01,2013-10-19 00:15:00,
2013-10-18 20:16:00,47.6,37.2,29.91,West,275,8.1,10.7,67,0.00,,,0.00,0.00,VWS V14.01,2013-10-19 00:16:00,
2013-10-18 20:17:00,47.5,37.2,29.91,WNW,287,6.9,9.0,67,0.00,,,0.00,0.06,VWS V14.01,2013-10-19 00:17:00,
2013-10-18 20:18:00,47.1,37.0,29.91,West,263,8.7,8.7,68,0.00,,,0.00,0.00,VWS V14.01,2013-10-19 00:18:00,
2013-10-18 20:21:00,47.3,36.7,29.91,West,276,11.6,11.6,66,0.00,,,0.00,0.00,VWS V14.01,2013-10-19 00:21:00,
2013-10-18 20:22:00,47.3,36.7,29.91,West,276,11.6,11.6,66,0.00,,,0.00,0.00,VWS V14.01,2013-10-19 00:22:00,
2013-10-18 20:23:00,46.7,35.4,29.91,WSW,251,8.5,11.4,64,0.00,,,0.00,0.00,VWS V14.01,2013-10-19 00:23:00,
2013-10-18 20:24:00,46.7,35.6,29.91,West,267,9.9,10.7,65,0.00,,,0.00,0.06,VWS V14.01,2013-10-19 00:24:00,
2013-10-18 20:26:00,46.6,36.4,29.91,West,265,12.8,12.8,67,0.00,,,0.00,0.00,VWS V14.01,2013-10-19 00:26:00,
2013-10-18 20:28:00,46.5,36.5,29.95,WNW,287,13.5,13.5,68,0.00,,,0.00,0.00,VWS V14.01,2013-10-19 00:28:00,
2013-10-18 20:29:00,46.0,36.3,29.92,West,280,8.5,13.5,68,0.00,,,0.00,0.00,VWS V14.01,2013-10-19 00:29:00,
2013-10-18 20:30:00,46.2,36.8,29.92,WNW,284,8.7,8.8,69,0.00,,,0.00,0.00,VWS V14.01,2013-10-19 00:30:00,
2013-10-18 20:31:00,45.7,36.4,29.91,West,268,6.1,8.7,70,0.00,,,0.00,0.00,VWS V14.01,2013-10-19 00:31:00,
2013-10-18 20:33:00,46.5,37.9,29.92,West,265,9.9,9.9,72,0.00,,,0.00,0.00,VWS V14.01,2013-10-19 00:33:00,
2013-10-18 20:34:00,45.6,36.3,29.91,West,276,7.6,9.9,70,0.00,,,0.00,0.12,VWS V14.01,2013-10-19 00:34:00,
2013-10-18 20:35:00,45.9,37.6,29.92,West,270,8.0,8.0,73,0.00,,,0.00,0.00,VWS V14.01,2013-10-19 00:35:00,
2013-10-18 20:36:00,46.1,37.9,29.91,West,270,8.0,8.0,73,0.00,,,0.00,0.00,VWS V14.01,2013-10-19 00:36:00,
2013-10-18 20:39:00,45.2,37.5,29.92,WNW,290,8.0,8.5,74,0.00,,,0.00,0.00,VWS V14.01,2013-10-19 00:39:00,
2013-10-18 20:40:00,45.6,38.1,29.91,West,267,7.1,8.0,75,0.00,,,0.00,0.00,VWS V14.01,2013-10-19 00:40:00,
2013-10-18 20:41:00,45.0,37.5,29.92,WSW,253,7.1,9.2,75,0.00,,,0.00,0.00,VWS V14.01,2013-10-19 00:41:00,
2013-10-18 20:44:00,45.2,37.9,29.91,West,274,6.1,10.5,75,0.00,,,0.00,0.06,VWS V14.01,2013-10-19 00:44:00,
2013-10-18 20:46:00,45.5,38.9,29.91,WNW,284,8.7,8.7,77,0.00,,,0.00,0.00,VWS V14.01,2013-10-19 00:46:00,
2013-10-18 20:47:00,45.5,38.8,29.92,WNW,285,8.0,8.7,77,0.00,,,0.00,0.00,VWS V14.01,2013-10-19 00:47:00,
2013-10-18 20:48:00,45.1,38.5,29.92,West,264,7.6,9.2,77,0.00,,,0.00,0.00,VWS V14.01,2013-10-19 00:48:00,
2013-10-18 20:51:00,45.2,38.6,29.91,WNW,285,7.6,7.6,77,0.00,,,0.00,0.00,VWS V14.01,2013-10-19 00:51:00,
2013-10-18 20:52:00,45.2,37.5,29.92,WNW,287,7.6,7.6,74,0.00,,,0.00,0.00,VWS V14.01,2013-10-19 00:52:00,
2013-10-18 20:53:00,44.8,38.4,29.93,West,281,6.4,7.6,78,0.00,,,0.00,0.06,VWS V14.01,2013-10-19 00:53:00,
2013-10-18 20:57:00,44.6,38.4,29.92,WNW,294,6.4,6.4,79,0.00,,,0.00,0.00,VWS V14.01,2013-10-19 00:57:00,
2013-10-18 20:58:00,44.7,38.6,29.93,West,269,6.4,9.0,79,0.00,,,0.00,0.00,VWS V14.01,2013-10-19 00:58:00,
2013-10-18 20:59:00,44.7,38.6,29.93,West,269,6.4,9.0,79,0.00,,,0.00,0.00,VWS V14.01,2013-10-19 00:59:00,
2013-10-18 21:00:00,44.7,38.6,29.92,WNW,299,6.8,6.8,79,0.00,,,0.00,0.00,VWS V14.01,2013-10-19 01:00:00,
2013-10-18 21:02:00,45.0,39.3,29.92,WNW,288,6.4,6.4,80,0.00,,,0.00,0.00,VWS V14.01,2013-10-19 01:02:00,
2013-10-18 21:03:00,44.5,38.8,29.92,WNW,291,4.5,6.4,80,0.00,,,0.00,0.00,VWS V14.01,2013-10-19 01:03:00,
2013-10-18 21:04:00,45.0,39.5,29.92,WNW,283,6.1,6.1,81,0.00,,,0.00,0.00,VWS V14.01,2013-10-19 01:04:00,
2013-10-18 21:05:00,44.8,39.3,29.93,WNW,293,6.4,6.4,81,0.00,,,0.00,0.00,VWS V14.01,2013-10-19 01:05:00,
2013-10-18 21:08:00,44.1,38.7,29.93,WNW,290,4.4,5.1,81,0.00,,,0.00,0.00,VWS V14.01,2013-10-19 01:08:00,
2013-10-18 21:09:00,44.2,37.6,29.93,West,280,4.7,4.7,77,0.00,,,0.00,0.00,VWS V14.01,2013-10-19 01:09:00,
2013-10-18 21:10:00,44.2,38.9,29.93,West,277,4.0,4.7,82,0.00,,,0.00,0.00,VWS V14.01,2013-10-19 01:10:00,
2013-10-18 21:11:00,44.5,39.4,29.93,WNW,287,4.2,4.4,82,0.00,,,0.00,0.00,VWS V14.01,2013-10-19 01:11:00,
2013-10-18 21:15:00,44.1,39.5,29.92,West,263,4.0,4.0,84,0.00,,,0.00,0.00,VWS V14.01,2013-10-19 01:15:00,
2013-10-18 21:16:00,44.0,39.4,29.92,WSW,255,4.0,4.0,84,0.00,,,0.00,0.00,VWS V14.01,2013-10-19 01:16:00,
2013-10-18 21:17:00,43.4,38.8,29.93,WSW,258,3.9,3.9,84,0.00,,,0.00,0.12,VWS V14.01,2013-10-19 01:17:00,
2013-10-18 21:21:00,42.9,38.8,29.94,West,262,3.9,4.2,85,0.00,,,0.00,0.00,VWS V14.01,2013-10-19 01:21:00,
2013-10-18 21:22:00,42.9,38.9,29.94,West,260,4.2,4.4,86,0.00,,,0.00,0.00,VWS V14.01,2013-10-19 01:22:00,
2013-10-18 21:23:00,43.1,39.1,29.94,West,260,4.7,4.7,86,0.00,,,0.00,0.00,VWS V14.01,2013-10-19 01:23:00,
2013-10-18 21:25:00,42.6,38.7,29.92,WNW,292,3.2,3.7,86,0.00,,,0.00,0.43,VWS V14.01,2013-10-19 01:25:00,
2013-10-18 21:27:00,42.4,38.8,29.94,NW,321,3.4,3.4,87,0.00,,,0.00,0.00,VWS V14.01,2013-10-19 01:27:00,
2013-10-18 21:28:00,41.9,38.3,29.94,WNW,285,2.5,3.2,87,0.00,,,0.00,0.43,VWS V14.01,2013-10-19 01:28:00,
2013-10-18 21:31:00,43.0,39.8,29.94,West,270,4.0,4.7,89,0.00,,,0.00,0.00,VWS V14.01,2013-10-19 01:31:00,
2013-10-18 21:32:00,42.5,39.5,29.94,West,263,4.7,4.7,89,0.00,,,0.00,0.00,VWS V14.01,2013-10-19 01:32:00,
2013-10-18 21:33:00,42.3,39.3,29.94,WNW,285,3.7,5.1,89,0.00,,,0.00,0.00,VWS V14.01,2013-10-19 01:33:00,
2013-10-18 21:34:00,42.8,39.8,29.94,WNW,298,4.4,4.4,89,0.00,,,0.00,0.00,VWS V14.01,2013-10-19 01:34:00,
2013-10-18 21:35:00,42.2,39.1,29.93,WNW,284,2.8,4.4,89,0.00,,,0.00,0.00,VWS V14.01,2013-10-19 01:35:00,
2013-10-18 21:38:00,42.9,40.0,29.93,West,274,4.2,4.2,89,0.00,,,0.00,0.00,VWS V14.01,2013-10-19 01:38:00,
2013-10-18 21:39:00,43.2,40.4,29.93,WNW,286,4.7,5.6,90,0.00,,,0.00,0.00,VWS V14.01,2013-10-19 01:39:00,
2013-10-18 21:40:00,42.8,39.7,29.92,West,281,3.7,3.7,89,0.00,,,0.00,0.00,VWS V14.01,2013-10-19 01:40:00,
2013-10-18 21:44:00,42.6,39.4,29.93,WNW,294,3.9,4.0,88,0.00,,,0.00,0.00,VWS V14.01,2013-10-19 01:44:00,
2013-10-18 21:45:00,42.6,39.4,29.93,WNW,295,4.0,4.0,88,0.00,,,0.00,0.00,VWS V14.01,2013-10-19 01:45:00,
2013-10-18 21:46:00,43.5,40.3,29.93,WNW,294,4.2,4.2,89,0.00,,,0.00,0.00,VWS V14.01,2013-10-19 01:46:00,
2013-10-18 21:47:00,43.4,40.2,29.93,WNW,287,4.5,8.0,88,0.00,,,0.00,0.00,VWS V14.01,2013-10-19 01:47:00,
2013-10-18 21:49:00,43.6,40.2,29.93,WNW,301,5.4,5.4,87,0.00,,,0.00,0.00,VWS V14.01,2013-10-19 01:49:00,
2013-10-18 21:50:00,42.8,39.2,29.93,WNW,297,4.0,5.4,87,0.00,,,0.00,0.00,VWS V14.01,2013-10-19 01:50:00,
2013-10-18 21:51:00,42.7,39.1,29.94,WNW,298,3.7,4.0,87,0.00,,,0.00,0.00,VWS V14.01,2013-10-19 01:51:00,
2013-10-18 21:52:00,42.3,38.7,29.94,WNW,293,2.7,3.7,87,0.00,,,0.00,0.00,VWS V14.01,2013-10-19 01:52:00,
2013-10-18 21:53:00,42.4,38.9,29.93,WNW,287,2.8,2.8,87,0.00,,,0.00,0.00,VWS V14.01,2013-10-19 01:53:00,
2013-10-18 21:55:00,42.8,39.5,29.93,WNW,285,4.0,4.0,88,0.00,,,0.00,0.00,VWS V14.01,2013-10-19 01:55:00,
2013-10-18 21:57:00,42.7,39.3,29.93,WNW,287,3.7,3.7,88,0.00,,,0.00,0.00,VWS V14.01,2013-10-19 01:57:00,
2013-10-18 21:58:00,42.2,38.8,29.94,WNW,301,2.7,3.7,88,0.00,,,0.00,0.00,VWS V14.01,2013-10-19 01:58:00,
2013-10-18 21:59:00,42.7,39.4,29.93,WNW,296,3.0,3.0,88,0.00,,,0.00,0.00,VWS V14.01,2013-10-19 01:59:00,
2013-10-18 22:00:00,41.9,38.7,29.93,WNW,296,2.8,3.0,88,0.00,,,0.00,0.12,VWS V14.01,2013-10-19 02:00:00,
2013-10-18 22:01:00,41.9,38.7,29.93,WNW,296,2.8,3.0,88,0.00,,,0.00,0.12,VWS V14.01,2013-10-19 02:01:00,
2013-10-18 22:04:00,42.2,39.2,29.94,WNW,291,4.0,4.0,89,0.00,,,0.00,0.00,VWS V14.01,2013-10-19 02:04:00,
2013-10-18 22:05:00,42.3,39.4,29.94,WNW,292,3.5,4.0,89,0.00,,,0.00,0.00,VWS V14.01,2013-10-19 02:05:00,
2013-10-18 22:06:00,41.8,38.8,29.94,WNW,293,3.9,4.0,89,0.00,,,0.00,0.00,VWS V14.01,2013-10-19 02:06:00,
2013-10-18 22:07:00,41.9,38.8,29.94,WNW,295,3.4,3.9,89,0.00,,,0.00,0.00,VWS V14.01,2013-10-19 02:07:00,
2013-10-18 22:11:00,41.7,38.6,29.94,WNW,298,3.9,5.2,89,0.00,,,0.00,0.00,VWS V14.01,2013-10-19 02:11:00,
2013-10-18 22:12:00,42.0,38.8,29.93,WNW,295,3.9,5.2,89,0.00,,,0.00,0.12,VWS V14.01,2013-10-19 02:12:00,
2013-10-18 22:14:00,41.8,38.6,29.94,WNW,289,4.2,4.2,88,0.00,,,0.00,0.00,VWS V14.01,2013-10-19 02:14:00,
2013-10-18 22:15:00,42.0,38.9,29.94,WNW,289,4.0,4.0,88,0.00,,,0.00,0.00,VWS V14.01,2013-10-19 02:15:00,
2013-10-18 22:17:00,41.6,38.5,29.93,West,279,4.2,4.2,88,0.00,,,0.00,0.00,VWS V14.01,2013-10-19 02:17:00,
2013-10-18 22:18:00,42.0,38.8,29.93,WNW,282,4.0,4.2,88,0.00,,,0.00,0.00,VWS V14.01,2013-10-19 02:18:00,
2013-10-18 22:19:00,41.9,38.8,29.94,West,275,3.7,4.2,88,0.00,,,0.00,0.00,VWS V14.01,2013-10-19 02:19:00,
2013-10-18 22:20:00,41.5,38.3,29.94,West,280,3.2,3.7,89,0.00,,,0.00,0.00,VWS V14.01,2013-10-19 02:20:00,
2013-10-18 22:21:00,41.9,38.2,29.93,West,276,3.5,3.5,86,0.00,,,0.00,0.00,VWS V14.01,2013-10-19 02:21:00,
2013-10-18 22:23:00,41.6,38.4,29.93,West,276,3.4,3.7,88,0.00,,,0.00,0.00,VWS V14.01,2013-10-19 02:23:00,
2013-10-18 22:24:00,41.1,38.0,29.94,West,267,3.0,3.7,89,0.00,,,0.00,0.00,VWS V14.01,2013-10-19 02:24:00,
2013-10-18 22:25:00,41.4,38.3,29.94,West,275,3.5,3.5,89,0.00,,,0.00,0.00,VWS V14.01,2013-10-19 02:25:00,
2013-10-18 22:26:00,41.2,38.1,29.93,West,275,3.9,3.9,89,0.00,,,0.00,0.00,VWS V14.01,2013-10-19 02:26:00,
2013-10-18 22:28:00,41.1,38.2,29.94,West,268,4.0,4.0,89,0.00,,,0.00,0.00,VWS V14.01,2013-10-19 02:28:00,
2013-10-18 22:29:00,41.0,38.1,29.94,West,277,3.7,3.7,89,0.00,,,0.00,0.00,VWS V14.01,2013-10-19 02:29:00,
2013-10-18 22:30:00,40.8,37.9,29.93,West,271,2.7,3.7,89,0.00,,,0.00,0.00,VWS V14.01,2013-10-19 02:30:00,
2013-10-18 22:31:00,40.9,38.2,29.93,West,280,3.0,3.4,90,0.00,,,0.00,0.00,VWS V14.01,2013-10-19 02:31:00,
2013-10-18 22:32:00,40.4,37.6,29.93,West,280,2.5,2.5,90,0.00,,,0.00,0.00,VWS V14.01,2013-10-19 02:32:00,
2013-10-18 22:33:00,41.1,38.5,29.94,West,279,3.4,3.4,90,0.00,,,0.00,0.00,VWS V14.01,2013-10-19 02:33:00,
2013-10-18 22:34:00,40.4,37.8,29.94,West,279,3.0,3.4,90,0.00,,,0.00,0.00,VWS V14.01,2013-10-19 02:34:00,
2013-10-18 22:35:00,40.4,37.9,29.93,West,278,3.5,3.5,91,0.00,,,0.00,0.00,VWS V14.01,2013-10-19 02:35:00,
2013-10-18 22:37:00,40.2,37.8,29.94,West,276,2.5,3.4,91,0.00,,,0.00,0.00,VWS V14.01,2013-10-19 02:37:00,
2013-10-18 22:38:00,40.0,37.6,29.94,West,276,2.7,3.4,91,0.00,,,0.00,0.00,VWS V14.01,2013-10-19 02:38:00,
2013-10-18 22:39:00,40.0,37.6,29.93,West,276,2.8,2.8,91,0.00,,,0.00,0.00,VWS V14.01,2013-10-19 02:39:00,
2013-10-18 22:40:00,40.0,37.6,29.93,West,276,2.8,2.8,91,0.00,,,0.00,0.00,VWS V14.01,2013-10-19 02:40:00,
2013-10-18 22:41:00,40.3,38.1,29.94,West,277,2.5,2.7,92,0.00,,,0.00,0.00,VWS V14.01,2013-10-19 02:41:00,
2013-10-18 22:45:00,40.0,38.0,29.93,West,274,2.5,2.5,92,0.00,,,0.00,0.00,VWS V14.01,2013-10-19 02:45:00,
2013-10-18 22:46:00,40.2,38.2,29.94,West,274,2.2,2.2,93,0.00,,,0.00,0.00,VWS V14.01,2013-10-19 02:46:00,
2013-10-18 22:47:00,40.0,38.2,29.94,West,274,2.2,2.5,93,0.00,,,0.00,0.00,VWS V14.01,2013-10-19 02:47:00,
2013-10-18 22:51:00,40.4,37.9,29.94,West,274,2.8,3.0,91,0.00,,,0.00,0.00,VWS V14.01,2013-10-19 02:51:00,
2013-10-18 22:52:00,40.7,39.0,29.94,West,274,3.5,3.5,94,0.00,,,0.00,0.73,VWS V14.01,2013-10-19 02:52:00,
2013-10-18 22:55:00,40.8,39.0,29.94,West,272,4.2,4.2,93,0.00,,,0.00,0.00,VWS V14.01,2013-10-19 02:55:00,
2013-10-18 22:57:00,40.1,38.3,29.94,West,272,3.9,4.2,93,0.00,,,0.00,0.00,VWS V14.01,2013-10-19 02:57:00,
2013-10-18 22:58:00,40.1,38.1,29.94,West,272,3.7,3.9,93,0.00,,,0.00,0.00,VWS V14.01,2013-10-19 02:58:00,
2013-10-18 23:02:00,40.3,38.4,29.94,West,274,3.9,3.9,93,0.00,,,0.00,0.06,VWS V14.01,2013-10-19 03:02:00,
2013-10-18 23:03:00,40.3,38.4,29.94,West,274,3.9,3.9,93,0.00,,,0.00,0.06,VWS V14.01,2013-10-19 03:03:00,
2013-10-18 23:04:00,39.7,37.7,29.94,West,274,3.2,3.4,92,0.00,,,0.00,0.00,VWS V14.01,2013-10-19 03:04:00,
2013-10-18 23:05:00,39.3,37.2,29.93,West,274,2.7,3.4,92,0.00,,,0.00,0.37,VWS V14.01,2013-10-19 03:05:00,
2013-10-18 23:09:00,39.4,37.6,29.94,WSW,254,2.8,3.4,93,0.00,,,0.00,0.00,VWS V14.01,2013-10-19 03:09:00,
2013-10-18 23:10:00,39.4,37.5,29.94,WSW,251,2.8,2.8,93,0.00,,,0.00,0.00,VWS V14.01,2013-10-19 03:10:00,
2013-10-18 23:11:00,39.2,37.4,29.94,WSW,246,2.8,2.8,93,0.00,,,0.00,0.00,VWS V14.01,2013-10-19 03:11:00,
2013-10-18 23:15:00,40.1,38.7,29.94,SW,230,4.2,4.2,95,0.00,,,0.00,0.00,VWS V14.01,2013-10-19 03:15:00,
2013-10-18 23:16:00,40.2,38.9,29.94,SW,236,3.9,3.9,95,0.00,,,0.00,0.00,VWS V14.01,2013-10-19 03:16:00,
2013-10-18 23:17:00,39.9,38.6,29.94,SW,235,3.9,3.9,95,0.00,,,0.00,0.00,VWS V14.01,2013-10-19 03:17:00,
2013-10-18 23:21:00,40.4,39.2,29.93,WSW,240,3.2,3.4,95,0.00,,,0.00,0.00,VWS V14.01,2013-10-19 03:21:00,
2013-10-18 23:22:00,40.0,38.8,29.94,WSW,251,3.7,3.7,95,0.00,,,0.00,0.00,VWS V14.01,2013-10-19 03:22:00,
2013-10-18 23:23:00,39.9,38.7,29.94,WSW,256,3.4,3.7,95,0.00,,,0.00,0.00,VWS V14.01,2013-10-19 03:23:00,
2013-10-18 23:25:00,40.7,39.4,29.94,WSW,257,3.4,3.4,95,0.00,,,0.00,0.00,VWS V14.01,2013-10-19 03:25:00,
2013-10-18 23:26:00,40.4,39.1,29.93,West,270,2.8,3.0,95,0.00,,,0.00,0.00,VWS V14.01,2013-10-19 03:26:00,
2013-10-18 23:27:00,40.4,39.1,29.93,West,270,2.8,3.0,95,0.00,,,0.00,0.00,VWS V14.01,2013-10-19 03:27:00,
2013-10-18 23:28:00,40.6,39.2,29.95,West,269,3.0,3.0,95,0.00,,,0.00,0.00,VWS V14.01,2013-10-19 03:28:00,
2013-10-18 23:29:00,40.6,39.2,29.95,West,269,3.0,3.0,95,0.00,,,0.00,0.00,VWS V14.01,2013-10-19 03:29:00,
2013-10-18 23:32:00,40.6,39.0,29.94,West,269,3.7,4.0,94,0.00,,,0.00,0.43,VWS V14.01,2013-10-19 03:32:00,
2013-10-18 23:33:00,40.5,38.8,29.94,West,269,3.4,4.0,94,0.00,,,0.00,0.00,VWS V14.01,2013-10-19 03:33:00,
2013-10-18 23:34:00,40.7,39.0,29.93,West,270,3.7,3.7,94,0.00,,,0.00,0.00,VWS V14.01,2013-10-19 03:34:00,
2013-10-18 23:35:00,40.5,38.8,29.93,West,276,3.7,3.7,93,0.00,,,0.00,0.00,VWS V14.01,2013-10-19 03:35:00,
2013-10-18 23:38:00,39.9,38.0,29.95,West,281,3.2,3.7,93,0.00,,,0.00,0.00,VWS V14.01,2013-10-19 03:38:00,
2013-10-18 23:39:00,39.6,37.7,29.94,WNW,282,2.8,3.7,93,0.00,,,0.00,0.00,VWS V14.01,2013-10-19 03:39:00,
2013-10-18 23:40:00,40.2,38.3,29.94,WNW,285,2.5,2.8,93,0.00,,,0.00,0.73,VWS V14.01,2013-10-19 03:40:00,
2013-10-18 23:41:00,40.0,38.1,29.94,West,267,3.2,3.2,93,0.00,,,0.00,0.00,VWS V14.01,2013-10-19 03:41:00,
2013-10-18 23:43:00,40.1,38.4,29.94,West,266,3.2,3.2,94,0.00,,,0.00,0.00,VWS V14.01,2013-10-19 03:43:00,
2013-10-18 23:44:00,39.8,37.5,29.94,West,265,3.2,3.2,91,0.00,,,0.00,0.00,VWS V14.01,2013-10-19 03:44:00,
2013-10-18 23:46:00,40.0,38.3,29.94,West,266,3.2,3.2,93,0.00,,,0.00,0.00,VWS V14.01,2013-10-19 03:46:00,
2013-10-18 23:48:00,39.9,38.1,29.94,West,265,2.5,2.8,93,0.00,,,0.00,0.00,VWS V14.01,2013-10-19 03:48:00,
2013-10-18 23:49:00,39.8,38.0,29.94,West,265,2.5,2.8,93,0.00,,,0.00,0.00,VWS V14.01,2013-10-19 03:49:00,
2013-10-18 23:51:00,40.3,38.5,29.94,WSW,249,2.3,2.8,93,0.00,,,0.00,0.00,VWS V14.01,2013-10-19 03:51:00,
2013-10-18 23:52:00,40.3,38.5,29.94,West,264,2.7,2.7,93,0.00,,,0.00,0.00,VWS V14.01,2013-10-19 03:52:00,
2013-10-18 23:53:00,40.3,38.5,29.94,West,259,1.0,2.5,93,0.00,,,0.00,0.00,VWS V14.01,2013-10-19 03:53:00,
2013-10-18 23:55:00,40.5,38.7,29.92,West,263,1.3,2.0,93,0.00,,,0.00,0.00,VWS V14.01,2013-10-19 03:55:00,
2013-10-18 23:56:00,40.5,38.7,29.92,West,263,1.3,2.0,93,0.00,,,0.00,0.00,VWS V14.01,2013-10-19 03:56:00,
2013-10-18 23:57:00,40.3,38.5,29.92,West,263,1.6,1.6,93,0.00,,,0.00,0.00,VWS V14.01,2013-10-19 03:57:00,
2013-10-18 23:58:00,40.4,38.5,29.92,WSW,258,2.2,2.2,93,0.00,,,0.00,0.00,VWS V14.01,2013-10-19 03:58:00,
2013-10-18 23:59:00,40.6,38.7,29.92,WSW,258,2.5,2.5,93,0.00,,,0.00,0.00,VWS V14.01,2013-10-19 03:59:00,